QFA94 KLAX-YMML

Flight info

Callsign QFA94
Flight time 15h 10m
Altitude 34000
Route SUMMR2 FICKY DCT 2713N12506W 2518N12627W 2125N12900W 1850N13102W 1503N13427W/N0489F360 1258N13630W 1014N13925W 0823N14136W 0517N14527W 0251N14823W 0022N15101W 0306S15504W/N0480F380 0500S15727W 0610S15856W 0926S16307W 1202S16631W 1454S17021W 1810S17439W 1856S17534W 2132S17821W/N0476F400 2300S17959W 2500S17818E 2719S17613E 2938S17422E 3300S17046E 3533S16609E 3559S16456E 3633S16300E 3647S16208E 3734S15530E DCT MOMSY DCT RIMSU Q302 BOOIN
Aircraft A388/J-SADE2E3FGHIJ3J4J5M1RWXY/LB1D1

Departure

Time 2026-04-20 03:54
Airport Los Angeles International Airport (KLAX)

Arrival

Time 2026-04-20 19:05
Airport Melbourne Airport (YMML)
Time Latitude Longitude Altitude Speed Heading
2026-04-20 03:21 33.94020 -118.41078 98 ft 0 kts 83°
2026-04-20 03:42 33.94020 -118.41079 98 ft 1 kts 83°
2026-04-20 03:42 33.94017 -118.41109 99 ft 4 kts 83°
2026-04-20 03:43 33.94014 -118.41140 99 ft 4 kts 76°
2026-04-20 03:43 33.94003 -118.41167 98 ft 4 kts 36°
2026-04-20 03:43 33.93980 -118.41177 98 ft 4 kts 357°
2026-04-20 03:43 33.93959 -118.41175 98 ft 4 kts 353°
2026-04-20 03:44 33.93934 -118.41171 98 ft 2 kts 353°
2026-04-20 03:44 33.93933 -118.41171 99 ft 0 kts 353°
2026-04-20 03:48 33.93943 -118.41172 101 ft 8 kts 353°
2026-04-20 03:48 33.94040 -118.41187 100 ft 16 kts 352°
2026-04-20 03:49 33.94164 -118.41204 99 ft 19 kts 353°
2026-04-20 03:49 33.94329 -118.41230 101 ft 26 kts 353°
2026-04-20 03:49 33.94499 -118.41255 98 ft 19 kts 353°
2026-04-20 03:49 33.94626 -118.41274 98 ft 19 kts 352°
2026-04-20 03:50 33.94749 -118.41289 99 ft 13 kts 18°
2026-04-20 03:50 33.94803 -118.41192 102 ft 21 kts 82°
2026-04-20 03:50 33.94826 -118.40967 102 ft 26 kts 83°
2026-04-20 03:50 33.94846 -118.40764 101 ft 24 kts 83°
2026-04-20 03:51 33.94866 -118.40563 100 ft 24 kts 82°
2026-04-20 03:51 33.94889 -118.40363 101 ft 24 kts 83°
2026-04-20 03:51 33.94909 -118.40164 99 ft 24 kts 84°
2026-04-20 03:51 33.94924 -118.39997 98 ft 11 kts 79°
2026-04-20 03:52 33.94942 -118.39946 98 ft 0 kts 46°
2026-04-20 03:52 33.94950 -118.39936 99 ft 10 kts 34°
2026-04-20 03:52 33.95014 -118.39921 100 ft 13 kts 341°
2026-04-20 03:52 33.95038 -118.39984 99 ft 9 kts 269°
2026-04-20 03:53 33.95036 -118.40008 98 ft 0 kts 263°
2026-04-20 03:53 33.95027 -118.40098 100 ft 39 kts 262°
2026-04-20 03:53 33.94961 -118.40737 105 ft 112 kts 263°
2026-04-20 03:53 33.94841 -118.41898 102 ft 162 kts 263°
2026-04-20 03:54 33.94697 -118.43328 378 ft 176 kts 262°
2026-04-20 03:54 33.94546 -118.44780 1019 ft 169 kts 263°
2026-04-20 03:54 33.94405 -118.46176 1625 ft 169 kts 262°
2026-04-20 03:54 33.94318 -118.47625 1951 ft 181 kts 268°
2026-04-20 03:55 33.94272 -118.49205 2059 ft 197 kts 268°
2026-04-20 03:55 33.94221 -118.50904 2158 ft 209 kts 265°
2026-04-20 03:55 33.94080 -118.52711 2251 ft 227 kts 264°
2026-04-20 03:55 33.93919 -118.54675 2459 ft 246 kts 264°
2026-04-20 03:56 33.93747 -118.56808 2777 ft 261 kts 264°
2026-04-20 03:56 33.93580 -118.59001 3437 ft 264 kts 265°
2026-04-20 03:56 33.93410 -118.61213 4090 ft 267 kts 265°
2026-04-20 03:56 33.93238 -118.63445 4744 ft 269 kts 264°
2026-04-20 03:57 33.93063 -118.65701 5383 ft 272 kts 264°
2026-04-20 03:57 33.92889 -118.67984 6031 ft 275 kts 264°
2026-04-20 03:57 33.92710 -118.70290 6663 ft 278 kts 264°
2026-04-20 03:57 33.92527 -118.72618 7260 ft 281 kts 264°
2026-04-20 03:58 33.92341 -118.74971 7863 ft 284 kts 264°
2026-04-20 03:58 33.92159 -118.77348 8432 ft 287 kts 264°
2026-04-20 03:58 33.91971 -118.79757 8992 ft 290 kts 263°
2026-04-20 03:58 33.91781 -118.82185 9547 ft 293 kts 263°
2026-04-20 03:59 33.91716 -118.84646 10100 ft 296 kts 271°
2026-04-20 03:59 33.91813 -118.87165 10367 ft 310 kts 271°
2026-04-20 03:59 33.91897 -118.89826 10525 ft 326 kts 270°
2026-04-20 03:59 33.91980 -118.92612 10662 ft 340 kts 270°
2026-04-20 04:00 33.92064 -118.95493 11032 ft 347 kts 270°
2026-04-20 04:00 33.92148 -118.98407 11559 ft 349 kts 269°
2026-04-20 04:00 33.91991 -119.01273 12088 ft 348 kts 258°
2026-04-20 04:00 33.91356 -119.04118 12627 ft 348 kts 247°
2026-04-20 04:01 33.90392 -119.06746 13127 ft 349 kts 243°
2026-04-20 04:01 33.89411 -119.09397 13634 ft 351 kts 244°
2026-04-20 04:01 33.88432 -119.12098 14136 ft 353 kts 245°
2026-04-20 04:01 33.87453 -119.14810 14644 ft 355 kts 244°
2026-04-20 04:02 33.86462 -119.17541 15113 ft 357 kts 244°
2026-04-20 04:02 33.85465 -119.20284 15597 ft 359 kts 245°
2026-04-20 04:02 33.84461 -119.23041 16068 ft 361 kts 245°
2026-04-20 04:02 33.83451 -119.25810 16514 ft 363 kts 245°
2026-04-20 04:03 33.82434 -119.28594 16948 ft 365 kts 244°
2026-04-20 04:03 33.81405 -119.31392 17439 ft 366 kts 244°
2026-04-20 04:03 33.80145 -119.34044 17836 ft 366 kts 233°
2026-04-20 04:03 33.78479 -119.36362 18231 ft 368 kts 223°
2026-04-20 04:04 33.76491 -119.38309 18621 ft 370 kts 217°
2026-04-20 04:04 33.74441 -119.40196 18999 ft 372 kts 218°
2026-04-20 04:04 33.72398 -119.42115 19378 ft 374 kts 218°
2026-04-20 04:04 33.70341 -119.44048 19734 ft 377 kts 218°
2026-04-20 04:05 33.68272 -119.45993 20098 ft 379 kts 218°
2026-04-20 04:05 33.66205 -119.47936 20452 ft 381 kts 218°
2026-04-20 04:05 33.64107 -119.49903 20789 ft 383 kts 218°
2026-04-20 04:05 33.62003 -119.51878 21117 ft 386 kts 218°
2026-04-20 04:06 33.59878 -119.53859 21462 ft 387 kts 218°
2026-04-20 04:06 33.57746 -119.55845 21819 ft 388 kts 218°
2026-04-20 04:06 33.55608 -119.57843 22140 ft 391 kts 219°
2026-04-20 04:06 33.53461 -119.59849 22452 ft 393 kts 219°
2026-04-20 04:07 33.51295 -119.61870 22762 ft 395 kts 219°
2026-04-20 04:07 33.49118 -119.63899 23067 ft 397 kts 219°
2026-04-20 04:07 33.46933 -119.65935 23371 ft 400 kts 219°
2026-04-20 04:07 33.44731 -119.67983 23723 ft 400 kts 219°
2026-04-20 04:08 33.42536 -119.70024 23972 ft 403 kts 219°
2026-04-20 04:08 33.40315 -119.72090 24258 ft 405 kts 219°
2026-04-20 04:08 33.38084 -119.74168 24540 ft 407 kts 219°
2026-04-20 04:08 33.35841 -119.76251 24869 ft 409 kts 219°
2026-04-20 04:09 33.33619 -119.78312 25138 ft 411 kts 219°
2026-04-20 04:09 33.31324 -119.80443 25422 ft 413 kts 219°
2026-04-20 04:09 33.29077 -119.82526 25747 ft 415 kts 219°
2026-04-20 04:09 33.26757 -119.84670 26077 ft 417 kts 220°
2026-04-20 04:10 33.24455 -119.86796 26347 ft 420 kts 220°
2026-04-20 04:10 33.22174 -119.88903 26672 ft 421 kts 220°
2026-04-20 04:10 33.19849 -119.91051 26985 ft 424 kts 220°
2026-04-20 04:10 33.17511 -119.93214 27295 ft 426 kts 220°
2026-04-20 04:11 33.15162 -119.95384 27619 ft 428 kts 220°
2026-04-20 04:11 33.12795 -119.97566 27927 ft 431 kts 220°
2026-04-20 04:11 33.10419 -119.99756 28231 ft 433 kts 220°
2026-04-20 04:11 33.08023 -120.01960 28550 ft 435 kts 220°
2026-04-20 04:12 33.05634 -120.04157 29007 ft 434 kts 221°
2026-04-20 04:12 33.03233 -120.06365 29278 ft 437 kts 221°
2026-04-20 04:12 33.00823 -120.08582 29544 ft 440 kts 221°
2026-04-20 04:12 32.98391 -120.10816 29860 ft 442 kts 221°
2026-04-20 04:13 32.95954 -120.13052 30173 ft 444 kts 221°
2026-04-20 04:13 32.93501 -120.15300 30457 ft 446 kts 221°
2026-04-20 04:13 32.91036 -120.17559 30771 ft 448 kts 221°
2026-04-20 04:13 32.88558 -120.19826 31088 ft 450 kts 221°
2026-04-20 04:14 32.86072 -120.22102 31363 ft 452 kts 221°
2026-04-20 04:14 32.83575 -120.24387 31651 ft 454 kts 221°
2026-04-20 04:14 32.81062 -120.26682 31930 ft 456 kts 221°
2026-04-20 04:14 32.78541 -120.28981 32182 ft 459 kts 222°
2026-04-20 04:15 32.76004 -120.31296 32498 ft 460 kts 221°
2026-04-20 04:15 32.73459 -120.33616 32775 ft 462 kts 222°
2026-04-20 04:15 32.70907 -120.35940 33026 ft 464 kts 222°
2026-04-20 04:15 32.68339 -120.38278 33289 ft 466 kts 222°
2026-04-20 04:16 32.65762 -120.40624 33580 ft 468 kts 222°
2026-04-20 04:16 32.63172 -120.42975 33820 ft 470 kts 222°
2026-04-20 04:16 32.60568 -120.45336 34011 ft 473 kts 222°
2026-04-20 04:16 32.57936 -120.47726 34001 ft 481 kts 222°
2026-04-20 04:17 32.52589 -120.52571 33999 ft 480 kts 222°
2026-04-20 04:17 32.47317 -120.57352 34000 ft 482 kts 222°
2026-04-20 04:18 32.41987 -120.62180 33993 ft 482 kts 222°
2026-04-20 04:18 32.36655 -120.66995 33990 ft 482 kts 222°
2026-04-20 04:19 32.31329 -120.71796 33994 ft 483 kts 222°
2026-04-20 04:19 32.25984 -120.76607 34000 ft 483 kts 222°
2026-04-20 04:20 32.20645 -120.81412 33999 ft 483 kts 222°
2026-04-20 04:20 32.15305 -120.86205 34000 ft 482 kts 221°
2026-04-20 04:21 32.09967 -120.90989 33991 ft 481 kts 221°
2026-04-20 04:21 32.04650 -120.95747 33992 ft 481 kts 221°
2026-04-20 04:22 31.99316 -121.00510 33993 ft 480 kts 221°
2026-04-20 04:22 31.93994 -121.05263 33981 ft 480 kts 221°
2026-04-20 04:23 31.88675 -121.10002 33981 ft 479 kts 221°
2026-04-20 04:23 31.83356 -121.14734 33983 ft 479 kts 221°
2026-04-20 04:24 31.78037 -121.19458 33981 ft 479 kts 221°
2026-04-20 04:24 31.72718 -121.24175 33986 ft 479 kts 221°
2026-04-20 04:25 31.67401 -121.28885 33986 ft 479 kts 221°
2026-04-20 04:25 31.62081 -121.33589 33990 ft 479 kts 221°
2026-04-20 04:26 31.56757 -121.38292 33990 ft 479 kts 221°
2026-04-20 04:26 31.51461 -121.43017 33988 ft 478 kts 222°
2026-04-20 04:27 31.46197 -121.47780 33990 ft 478 kts 222°
2026-04-20 04:27 31.40926 -121.52532 33991 ft 478 kts 222°
2026-04-20 04:28 31.35659 -121.57276 33989 ft 478 kts 222°
2026-04-20 04:28 31.30392 -121.62009 33986 ft 477 kts 222°
2026-04-20 04:29 31.25118 -121.66735 33984 ft 477 kts 222°
2026-04-20 04:29 31.19850 -121.71453 33982 ft 477 kts 222°
2026-04-20 04:30 31.14579 -121.76170 33983 ft 477 kts 221°
2026-04-20 04:30 31.09300 -121.80878 33985 ft 478 kts 221°
2026-04-20 04:31 31.04015 -121.85585 33991 ft 478 kts 222°
2026-04-20 04:31 30.98731 -121.90290 33982 ft 478 kts 221°
2026-04-20 04:32 30.93441 -121.94992 33984 ft 478 kts 221°
2026-04-20 04:32 30.88146 -121.99689 33983 ft 478 kts 221°
2026-04-20 04:33 30.82854 -122.04379 33996 ft 477 kts 221°
2026-04-20 04:33 30.77577 -122.09047 33989 ft 476 kts 221°
2026-04-20 04:34 30.72302 -122.13709 33983 ft 476 kts 221°
2026-04-20 04:34 30.67035 -122.18356 33978 ft 475 kts 221°
2026-04-20 04:35 30.61777 -122.22990 33974 ft 475 kts 221°
2026-04-20 04:35 30.56507 -122.27630 33968 ft 475 kts 221°
2026-04-20 04:36 30.48636 -122.34543 33975 ft 475 kts 221°
2026-04-20 04:37 30.43360 -122.39169 33972 ft 476 kts 221°
2026-04-20 04:37 30.38074 -122.43799 33979 ft 476 kts 221°
2026-04-20 04:38 30.32780 -122.48429 33982 ft 477 kts 221°
2026-04-20 04:38 30.27485 -122.53051 33993 ft 477 kts 221°
2026-04-20 04:39 30.22190 -122.57660 33991 ft 477 kts 221°
2026-04-20 04:39 30.16897 -122.62271 33993 ft 477 kts 221°
2026-04-20 04:40 30.12488 -122.66107 33990 ft 477 kts 221°
2026-04-20 04:40 30.07196 -122.70712 33986 ft 476 kts 221°
2026-04-20 04:41 30.01910 -122.75297 33982 ft 475 kts 221°
2026-04-20 04:41 29.96620 -122.79876 33985 ft 474 kts 221°
2026-04-20 04:42 29.91362 -122.84423 33984 ft 473 kts 221°
2026-04-20 04:42 29.86114 -122.88959 33976 ft 471 kts 222°
2026-04-20 04:43 29.80873 -122.93482 33963 ft 470 kts 221°
2026-04-20 04:43 29.75650 -122.97981 33955 ft 469 kts 222°
2026-04-20 04:44 29.70432 -123.02472 33958 ft 468 kts 221°
2026-04-20 04:44 29.65219 -123.06950 33956 ft 468 kts 221°
2026-04-20 04:45 29.60013 -123.11422 33950 ft 467 kts 222°
2026-04-20 04:45 29.54798 -123.15890 33946 ft 467 kts 221°
2026-04-20 04:46 29.49584 -123.20353 33971 ft 467 kts 221°
2026-04-20 04:46 29.44370 -123.24811 33967 ft 467 kts 222°
2026-04-20 04:47 29.39151 -123.29268 33978 ft 468 kts 222°
2026-04-20 04:47 29.33933 -123.33714 33974 ft 468 kts 222°
2026-04-20 04:48 29.28710 -123.38162 33983 ft 467 kts 222°
2026-04-20 04:48 29.23498 -123.42594 33981 ft 466 kts 222°
2026-04-20 04:49 29.18293 -123.47014 33976 ft 465 kts 222°
2026-04-20 04:49 29.13111 -123.51409 33971 ft 464 kts 222°
2026-04-20 04:50 29.07926 -123.55803 33971 ft 464 kts 222°
2026-04-20 04:50 29.02743 -123.60186 33969 ft 463 kts 222°
2026-04-20 04:51 28.97608 -123.64524 33973 ft 462 kts 222°
2026-04-20 04:51 28.92449 -123.68872 33968 ft 460 kts 222°
2026-04-20 04:52 28.87304 -123.73211 33969 ft 459 kts 223°
2026-04-20 04:52 28.82166 -123.77536 33960 ft 458 kts 223°
2026-04-20 04:53 28.77042 -123.81840 33962 ft 457 kts 223°
2026-04-20 04:53 28.71927 -123.86135 33967 ft 456 kts 223°
2026-04-20 04:54 28.66823 -123.90414 33966 ft 455 kts 223°
2026-04-20 04:54 28.61738 -123.94675 33965 ft 454 kts 223°
2026-04-20 04:55 28.56646 -123.98936 33963 ft 453 kts 223°
2026-04-20 04:55 28.51570 -124.03177 33975 ft 452 kts 223°
2026-04-20 04:56 28.46505 -124.07401 33949 ft 451 kts 223°
2026-04-20 04:56 28.41446 -124.11620 33961 ft 451 kts 223°
2026-04-20 04:57 28.36398 -124.15820 33960 ft 451 kts 223°
2026-04-20 04:57 28.31372 -124.19994 33960 ft 450 kts 223°
2026-04-20 04:58 28.26336 -124.24187 33972 ft 450 kts 223°
2026-04-20 04:58 28.21275 -124.28382 33966 ft 450 kts 223°
2026-04-20 04:59 28.16216 -124.32571 33969 ft 450 kts 223°
2026-04-20 04:59 28.11159 -124.36762 33971 ft 451 kts 223°
2026-04-20 05:00 28.06091 -124.40946 33974 ft 451 kts 223°
2026-04-20 05:00 28.01038 -124.45114 33980 ft 451 kts 223°
2026-04-20 05:01 27.95972 -124.49286 33994 ft 450 kts 223°
2026-04-20 05:01 27.90913 -124.53452 33983 ft 450 kts 223°
2026-04-20 05:02 27.85891 -124.57584 33978 ft 449 kts 223°
2026-04-20 05:02 27.80805 -124.61763 33969 ft 449 kts 223°
2026-04-20 05:03 27.75758 -124.65909 33981 ft 449 kts 223°
2026-04-20 05:03 27.70704 -124.70052 33982 ft 449 kts 223°
2026-04-20 05:04 27.65685 -124.74165 33977 ft 449 kts 223°
2026-04-20 05:04 27.60632 -124.78293 33981 ft 449 kts 223°
2026-04-20 05:05 27.55570 -124.82424 33978 ft 449 kts 223°
2026-04-20 05:05 27.50516 -124.86548 33987 ft 449 kts 223°
2026-04-20 05:06 27.45454 -124.90675 33981 ft 449 kts 223°
2026-04-20 05:06 27.40391 -124.94798 33982 ft 449 kts 223°
2026-04-20 05:07 27.35329 -124.98915 33981 ft 449 kts 223°
2026-04-20 05:07 27.30263 -125.03032 33982 ft 449 kts 223°
2026-04-20 05:08 27.25201 -125.07141 33977 ft 449 kts 223°
2026-04-20 05:08 27.20062 -125.11157 33978 ft 453 kts 219°
2026-04-20 05:09 27.14750 -125.14938 33974 ft 452 kts 220°
2026-04-20 05:09 27.09458 -125.18749 33977 ft 452 kts 220°
2026-04-20 05:10 27.04161 -125.22547 33974 ft 452 kts 220°
2026-04-20 05:10 26.98857 -125.26344 33976 ft 452 kts 220°
2026-04-20 05:11 26.93551 -125.30136 33978 ft 452 kts 220°
2026-04-20 05:11 26.88247 -125.33926 33978 ft 452 kts 220°
2026-04-20 05:12 26.82936 -125.37713 33971 ft 453 kts 219°
2026-04-20 05:12 26.77612 -125.41501 33980 ft 454 kts 219°
2026-04-20 05:13 26.72286 -125.45291 33980 ft 454 kts 220°
2026-04-20 05:13 26.66957 -125.49080 34002 ft 454 kts 219°
2026-04-20 05:14 26.61664 -125.52835 34004 ft 454 kts 219°
2026-04-20 05:14 26.56324 -125.56618 34006 ft 455 kts 219°
2026-04-20 05:15 26.50981 -125.60405 34008 ft 455 kts 219°
2026-04-20 05:15 26.45634 -125.64190 34007 ft 455 kts 219°
2026-04-20 05:16 26.40284 -125.67971 34015 ft 456 kts 219°
2026-04-20 05:16 26.34912 -125.71763 34011 ft 456 kts 219°
2026-04-20 05:17 26.29547 -125.75547 34009 ft 456 kts 219°
2026-04-20 05:17 26.24179 -125.79324 34008 ft 456 kts 219°
2026-04-20 05:18 26.18811 -125.83103 34007 ft 457 kts 219°
2026-04-20 05:18 26.13441 -125.86884 34012 ft 457 kts 219°
2026-04-20 05:19 26.08064 -125.90652 34007 ft 457 kts 219°
2026-04-20 05:19 26.02693 -125.94420 34007 ft 456 kts 219°
2026-04-20 05:20 25.97322 -125.98183 34007 ft 456 kts 219°
2026-04-20 05:20 25.91946 -126.01945 34007 ft 456 kts 219°
2026-04-20 05:21 25.86573 -126.05703 34007 ft 457 kts 219°
2026-04-20 05:21 25.81200 -126.09446 34004 ft 456 kts 219°
2026-04-20 05:22 25.75816 -126.13203 34009 ft 457 kts 219°
2026-04-20 05:22 25.70432 -126.16958 34011 ft 457 kts 219°
2026-04-20 05:23 25.65059 -126.20704 34017 ft 457 kts 219°
2026-04-20 05:23 25.59677 -126.24442 34017 ft 458 kts 219°
2026-04-20 05:24 25.54285 -126.28184 34010 ft 457 kts 219°
2026-04-20 05:24 25.48895 -126.31927 34012 ft 457 kts 219°
2026-04-20 05:25 25.43505 -126.35649 34011 ft 457 kts 219°
2026-04-20 05:25 25.38157 -126.39351 34005 ft 456 kts 219°
2026-04-20 05:26 25.32780 -126.43073 34007 ft 456 kts 219°
2026-04-20 05:26 25.27388 -126.46787 34006 ft 456 kts 219°
2026-04-20 05:27 25.21976 -126.50456 34003 ft 457 kts 219°
2026-04-20 05:27 25.17473 -126.53506 34002 ft 457 kts 219°
2026-04-20 05:28 25.12023 -126.57202 34008 ft 457 kts 219°
2026-04-20 05:28 25.06604 -126.60879 34010 ft 457 kts 219°
2026-04-20 05:29 25.01214 -126.64525 34008 ft 458 kts 219°
2026-04-20 05:29 24.95786 -126.68195 34010 ft 457 kts 219°
2026-04-20 05:30 24.90362 -126.71861 34008 ft 458 kts 219°
2026-04-20 05:30 24.84936 -126.75523 34009 ft 458 kts 219°
2026-04-20 05:31 24.79509 -126.79181 34008 ft 458 kts 219°
2026-04-20 05:31 24.74078 -126.82838 34008 ft 457 kts 219°
2026-04-20 05:32 24.68650 -126.86490 34007 ft 457 kts 219°
2026-04-20 05:32 24.63216 -126.90138 34004 ft 458 kts 219°
2026-04-20 05:33 24.57783 -126.93788 34009 ft 457 kts 219°
2026-04-20 05:33 24.52353 -126.97428 34005 ft 458 kts 219°
2026-04-20 05:34 24.46915 -127.01074 34005 ft 458 kts 219°
2026-04-20 05:34 24.38752 -127.06540 34008 ft 458 kts 219°
2026-04-20 05:35 24.33302 -127.10180 34002 ft 459 kts 219°
2026-04-20 05:35 24.27851 -127.13819 34016 ft 459 kts 218°
2026-04-20 05:36 24.22400 -127.17455 34011 ft 459 kts 218°
2026-04-20 05:36 24.16948 -127.21087 34008 ft 459 kts 218°
2026-04-20 05:37 24.11489 -127.24715 34009 ft 459 kts 218°
2026-04-20 05:37 24.06030 -127.28347 34005 ft 459 kts 218°
2026-04-20 05:38 24.00564 -127.31977 34011 ft 460 kts 218°
2026-04-20 05:38 23.95091 -127.35609 33999 ft 460 kts 218°
2026-04-20 05:39 23.89616 -127.39240 34011 ft 461 kts 218°
2026-04-20 05:39 23.84139 -127.42870 34013 ft 460 kts 218°
2026-04-20 05:40 23.78656 -127.46497 34006 ft 461 kts 218°
2026-04-20 05:40 23.73171 -127.50118 34014 ft 461 kts 218°
2026-04-20 05:41 23.67690 -127.53740 34009 ft 461 kts 218°
2026-04-20 05:41 23.62206 -127.57358 34005 ft 461 kts 218°
2026-04-20 05:42 23.56720 -127.60979 34007 ft 461 kts 218°
2026-04-20 05:42 23.51283 -127.64556 34013 ft 461 kts 218°
2026-04-20 05:43 23.45786 -127.68166 34011 ft 461 kts 218°
2026-04-20 05:43 23.40289 -127.71774 34015 ft 461 kts 218°
2026-04-20 05:44 23.34793 -127.75383 34015 ft 461 kts 218°
2026-04-20 05:44 23.29314 -127.78973 34015 ft 462 kts 218°
2026-04-20 05:45 23.23814 -127.82584 34014 ft 461 kts 218°
2026-04-20 05:45 23.18319 -127.86176 34010 ft 461 kts 218°
2026-04-20 05:46 23.12824 -127.89767 34007 ft 460 kts 218°
2026-04-20 05:46 23.07339 -127.93351 34005 ft 460 kts 218°
2026-04-20 05:47 23.01845 -127.96933 34008 ft 460 kts 218°
2026-04-20 05:47 22.96357 -128.00512 34013 ft 460 kts 217°
2026-04-20 05:48 22.90877 -128.04077 34017 ft 459 kts 217°
2026-04-20 05:48 22.85400 -128.07643 34013 ft 459 kts 217°
2026-04-20 05:49 22.79933 -128.11200 34009 ft 458 kts 217°
2026-04-20 05:49 22.74460 -128.14751 34006 ft 458 kts 217°
2026-04-20 05:50 22.68994 -128.18299 34004 ft 458 kts 217°
2026-04-20 05:50 22.63538 -128.21839 34004 ft 459 kts 217°
2026-04-20 05:51 22.58057 -128.25388 34009 ft 459 kts 217°
2026-04-20 05:51 22.52582 -128.28926 34009 ft 458 kts 217°
2026-04-20 05:52 22.47146 -128.32442 34013 ft 459 kts 217°
2026-04-20 05:52 22.41666 -128.35980 34021 ft 459 kts 217°
2026-04-20 05:53 22.36183 -128.39518 34021 ft 459 kts 217°
2026-04-20 05:53 22.30696 -128.43056 34021 ft 460 kts 217°
2026-04-20 05:54 22.25203 -128.46595 34006 ft 460 kts 217°
2026-04-20 05:54 22.19708 -128.50128 34004 ft 459 kts 217°
2026-04-20 05:55 22.14217 -128.53649 33996 ft 459 kts 217°
2026-04-20 05:55 22.08736 -128.57177 33996 ft 459 kts 217°
2026-04-20 05:56 22.03251 -128.60698 33997 ft 459 kts 217°
2026-04-20 05:56 21.97766 -128.64217 33995 ft 459 kts 217°
2026-04-20 05:57 21.92269 -128.67742 33990 ft 460 kts 217°
2026-04-20 05:57 21.86770 -128.71254 34048 ft 460 kts 217°
2026-04-20 05:58 21.81269 -128.74772 34048 ft 461 kts 217°
2026-04-20 05:58 21.75751 -128.78296 34060 ft 462 kts 217°
2026-04-20 05:59 21.70214 -128.81829 33992 ft 463 kts 217°
2026-04-20 05:59 21.64667 -128.85365 33995 ft 463 kts 217°
2026-04-20 06:00 21.59121 -128.88897 33990 ft 463 kts 217°
2026-04-20 06:00 21.53582 -128.92423 33985 ft 463 kts 217°
2026-04-20 06:01 21.48047 -128.95945 33979 ft 462 kts 216°
2026-04-20 06:01 21.42517 -128.99469 33976 ft 461 kts 217°
2026-04-20 06:02 21.37347 -129.03452 33969 ft 457 kts 222°
2026-04-20 06:02 21.32267 -129.07544 33969 ft 457 kts 222°
2026-04-20 06:03 21.27209 -129.11603 33971 ft 458 kts 222°
2026-04-20 06:03 21.22108 -129.15690 33982 ft 458 kts 222°
2026-04-20 06:04 21.17008 -129.19780 33981 ft 458 kts 222°
2026-04-20 06:04 21.11896 -129.23872 33983 ft 458 kts 222°
2026-04-20 06:05 21.06788 -129.27958 33984 ft 459 kts 222°
2026-04-20 06:05 21.01676 -129.32041 33975 ft 458 kts 222°
2026-04-20 06:06 20.96562 -129.36121 33980 ft 459 kts 222°
2026-04-20 06:06 20.91443 -129.40209 33983 ft 459 kts 222°
2026-04-20 06:07 20.86320 -129.44292 33992 ft 459 kts 222°
2026-04-20 06:07 20.81185 -129.48379 33985 ft 460 kts 222°
2026-04-20 06:08 20.76046 -129.52467 33991 ft 461 kts 222°
2026-04-20 06:08 20.70902 -129.56557 33994 ft 461 kts 222°
2026-04-20 06:09 20.65751 -129.60646 33992 ft 462 kts 221°
2026-04-20 06:09 20.60595 -129.64741 33995 ft 462 kts 221°
2026-04-20 06:10 20.55435 -129.68830 33994 ft 462 kts 221°
2026-04-20 06:10 20.50282 -129.72907 33991 ft 462 kts 221°
2026-04-20 06:11 20.45173 -129.76950 33993 ft 462 kts 221°
2026-04-20 06:11 20.40010 -129.81031 33982 ft 462 kts 222°
2026-04-20 06:12 20.34801 -129.85153 33991 ft 464 kts 222°
2026-04-20 06:12 20.29614 -129.89247 33999 ft 465 kts 222°
2026-04-20 06:13 20.25287 -129.92659 34006 ft 466 kts 222°
2026-04-20 06:13 20.20069 -129.96769 34013 ft 467 kts 222°
2026-04-20 06:14 20.14843 -130.00885 34018 ft 468 kts 222°
2026-04-20 06:14 20.09610 -130.05004 34020 ft 468 kts 222°
2026-04-20 06:15 20.04377 -130.09117 34021 ft 467 kts 222°
2026-04-20 06:15 19.99149 -130.13226 34019 ft 467 kts 221°
2026-04-20 06:16 19.93921 -130.17325 34010 ft 467 kts 222°
2026-04-20 06:16 19.88699 -130.21421 34008 ft 466 kts 222°
2026-04-20 06:17 19.83478 -130.25511 34021 ft 466 kts 222°
2026-04-20 06:17 19.78267 -130.29593 34015 ft 466 kts 221°
2026-04-20 06:18 19.73042 -130.33676 34013 ft 466 kts 221°
2026-04-20 06:18 19.67822 -130.37757 34014 ft 466 kts 221°
2026-04-20 06:19 19.62591 -130.41838 34012 ft 467 kts 221°
2026-04-20 06:19 19.57359 -130.45921 34021 ft 467 kts 221°
2026-04-20 06:20 19.52121 -130.50007 34022 ft 467 kts 221°
2026-04-20 06:20 19.46915 -130.54061 34017 ft 467 kts 221°
2026-04-20 06:21 19.41680 -130.58138 34014 ft 467 kts 221°
2026-04-20 06:21 19.36443 -130.62212 34021 ft 467 kts 221°
2026-04-20 06:22 19.31228 -130.66265 34010 ft 467 kts 221°
2026-04-20 06:22 19.25994 -130.70325 34022 ft 466 kts 221°
2026-04-20 06:23 19.20765 -130.74383 34013 ft 466 kts 221°
2026-04-20 06:23 19.15525 -130.78447 34020 ft 467 kts 221°
2026-04-20 06:24 19.10282 -130.82507 34020 ft 467 kts 221°
2026-04-20 06:24 19.05027 -130.86568 34028 ft 468 kts 221°
2026-04-20 06:25 18.99773 -130.90632 34029 ft 468 kts 221°
2026-04-20 06:25 18.94516 -130.94698 34027 ft 468 kts 221°
2026-04-20 06:26 18.89256 -130.98761 34025 ft 469 kts 221°
2026-04-20 06:26 18.83992 -131.02825 34021 ft 468 kts 221°
2026-04-20 06:27 18.79073 -131.07268 34012 ft 465 kts 226°
2026-04-20 06:27 18.74223 -131.11779 34015 ft 465 kts 226°
2026-04-20 06:28 18.69365 -131.16288 34009 ft 466 kts 226°
2026-04-20 06:28 18.64528 -131.20773 34010 ft 466 kts 226°
2026-04-20 06:29 18.59659 -131.25286 34018 ft 467 kts 226°
2026-04-20 06:29 18.54776 -131.29806 34025 ft 467 kts 226°
2026-04-20 06:30 18.49892 -131.34318 34023 ft 467 kts 226°
2026-04-20 06:30 18.45009 -131.38837 34018 ft 467 kts 226°
2026-04-20 06:31 18.40119 -131.43348 34017 ft 467 kts 226°
2026-04-20 06:31 18.35231 -131.47851 34014 ft 467 kts 226°
2026-04-20 06:32 18.30345 -131.52358 34015 ft 467 kts 226°
2026-04-20 06:32 18.25458 -131.56862 34018 ft 467 kts 226°
2026-04-20 06:33 18.20562 -131.61368 34017 ft 467 kts 226°
2026-04-20 06:33 18.15663 -131.65866 34008 ft 468 kts 226°
2026-04-20 06:34 18.10767 -131.70369 34012 ft 468 kts 226°
2026-04-20 06:35 18.03410 -131.77125 34014 ft 468 kts 225°
2026-04-20 06:35 17.98496 -131.81632 34022 ft 469 kts 225°
2026-04-20 06:36 17.93583 -131.86134 34023 ft 469 kts 225°
2026-04-20 06:36 17.88667 -131.90635 34020 ft 469 kts 225°
2026-04-20 06:37 17.83752 -131.95132 34018 ft 469 kts 225°
2026-04-20 06:37 17.78844 -131.99618 34018 ft 469 kts 225°
2026-04-20 06:38 17.73953 -132.04084 34019 ft 469 kts 225°
2026-04-20 06:38 17.69037 -132.08577 34015 ft 469 kts 225°
2026-04-20 06:39 17.64121 -132.13066 34012 ft 469 kts 225°
2026-04-20 06:39 17.59199 -132.17553 34018 ft 469 kts 225°
2026-04-20 06:40 17.54271 -132.22040 34014 ft 469 kts 225°
2026-04-20 06:40 17.49336 -132.26530 34012 ft 470 kts 225°
2026-04-20 06:41 17.44399 -132.31020 34016 ft 471 kts 225°
2026-04-20 06:41 17.39485 -132.35487 34015 ft 471 kts 225°
2026-04-20 06:42 17.34501 -132.40014 34014 ft 472 kts 225°
2026-04-20 06:42 17.29550 -132.44499 34011 ft 472 kts 225°
2026-04-20 06:43 17.24633 -132.48967 34017 ft 473 kts 225°
2026-04-20 06:43 17.19627 -132.53504 34016 ft 473 kts 225°
2026-04-20 06:44 17.14646 -132.58008 34016 ft 473 kts 225°
2026-04-20 06:44 17.09664 -132.62517 34013 ft 474 kts 225°
2026-04-20 06:45 17.04686 -132.67020 34019 ft 474 kts 225°
2026-04-20 06:45 16.99735 -132.71493 34024 ft 475 kts 225°
2026-04-20 06:46 16.94734 -132.76006 34020 ft 475 kts 225°
2026-04-20 06:46 16.89732 -132.80519 34017 ft 476 kts 225°
2026-04-20 06:47 16.84722 -132.85037 34017 ft 476 kts 225°
2026-04-20 06:47 16.79704 -132.89555 34023 ft 476 kts 225°
2026-04-20 06:48 16.74687 -132.94077 34014 ft 476 kts 225°
2026-04-20 06:48 16.69666 -132.98593 34023 ft 476 kts 225°
2026-04-20 06:49 16.64646 -133.03106 34020 ft 477 kts 225°
2026-04-20 06:49 16.59619 -133.07623 34018 ft 477 kts 225°
2026-04-20 06:50 16.54582 -133.12139 34018 ft 478 kts 225°
2026-04-20 06:50 16.49542 -133.16663 34016 ft 478 kts 225°
2026-04-20 06:51 16.44497 -133.21181 34018 ft 478 kts 225°
2026-04-20 06:51 16.39457 -133.25695 34014 ft 478 kts 225°
2026-04-20 06:52 16.34413 -133.30212 34012 ft 478 kts 225°
2026-04-20 06:52 16.29362 -133.34731 34012 ft 479 kts 225°
2026-04-20 06:53 16.24305 -133.39255 34014 ft 479 kts 225°
2026-04-20 06:53 16.19244 -133.43772 34015 ft 479 kts 224°
2026-04-20 06:54 16.14178 -133.48291 34016 ft 480 kts 224°
2026-04-20 06:54 16.09109 -133.52813 34017 ft 480 kts 224°
2026-04-20 06:55 16.04039 -133.57332 34022 ft 480 kts 224°
2026-04-20 06:55 15.98977 -133.61840 34022 ft 481 kts 224°
2026-04-20 06:56 15.93897 -133.66362 34016 ft 481 kts 224°
2026-04-20 06:56 15.88814 -133.70882 34018 ft 481 kts 224°
2026-04-20 06:57 15.83725 -133.75409 34025 ft 482 kts 224°
2026-04-20 06:57 15.78642 -133.79934 34023 ft 482 kts 224°
2026-04-20 06:58 15.73579 -133.84424 34017 ft 482 kts 224°
2026-04-20 06:58 15.68483 -133.88941 34026 ft 482 kts 224°
2026-04-20 06:59 15.63387 -133.93454 34040 ft 482 kts 224°
2026-04-20 06:59 15.58291 -133.97967 34032 ft 482 kts 224°
2026-04-20 07:00 15.53190 -134.02485 34034 ft 482 kts 224°
2026-04-20 07:00 15.48912 -134.06268 34033 ft 482 kts 224°
2026-04-20 07:01 15.43805 -134.10777 34035 ft 482 kts 224°
2026-04-20 07:01 15.38703 -134.15286 34025 ft 482 kts 224°
2026-04-20 07:02 15.33635 -134.19765 34025 ft 482 kts 224°
2026-04-20 07:02 15.28525 -134.24273 34026 ft 483 kts 224°
2026-04-20 07:02 15.25961 -134.26538 34319 ft 485 kts 224°
2026-04-20 07:03 15.23391 -134.28805 34761 ft 484 kts 224°
2026-04-20 07:03 15.20833 -134.31059 35191 ft 483 kts 224°
2026-04-20 07:03 15.18280 -134.33307 35650 ft 481 kts 224°
2026-04-20 07:03 15.15731 -134.35553 35957 ft 482 kts 224°
2026-04-20 07:04 15.13188 -134.37793 36026 ft 479 kts 224°
2026-04-20 07:04 15.08125 -134.42251 36027 ft 478 kts 224°
2026-04-20 07:05 15.03096 -134.46728 36028 ft 477 kts 226°
2026-04-20 07:05 14.98349 -134.51517 36027 ft 477 kts 228°
2026-04-20 07:06 14.93615 -134.56322 36024 ft 478 kts 227°
2026-04-20 07:06 14.88832 -134.61104 36030 ft 479 kts 227°
2026-04-20 07:07 14.84020 -134.65891 36042 ft 481 kts 227°
2026-04-20 07:07 14.79198 -134.70684 36048 ft 481 kts 227°
2026-04-20 07:08 14.74378 -134.75471 36045 ft 481 kts 227°
2026-04-20 07:08 14.69547 -134.80269 36036 ft 481 kts 227°
2026-04-20 07:09 14.64725 -134.85056 36033 ft 481 kts 227°
2026-04-20 07:09 14.59907 -134.89835 36030 ft 480 kts 227°
2026-04-20 07:10 14.55099 -134.94599 36032 ft 478 kts 227°
2026-04-20 07:10 14.50314 -134.99340 36020 ft 477 kts 227°
2026-04-20 07:11 14.45537 -135.04065 36025 ft 477 kts 227°
2026-04-20 07:11 14.40749 -135.08800 36020 ft 477 kts 227°
2026-04-20 07:12 14.35957 -135.13538 36026 ft 477 kts 227°
2026-04-20 07:12 14.31176 -135.18265 36026 ft 477 kts 227°
2026-04-20 07:13 14.26383 -135.22994 36033 ft 478 kts 227°
2026-04-20 07:13 14.21591 -135.27719 36032 ft 478 kts 227°
2026-04-20 07:14 14.16817 -135.32426 36050 ft 478 kts 227°
2026-04-20 07:14 14.12019 -135.37160 36051 ft 479 kts 227°
2026-04-20 07:15 14.07197 -135.41909 36036 ft 480 kts 226°
2026-04-20 07:15 14.02372 -135.46652 36035 ft 479 kts 226°
2026-04-20 07:16 13.97566 -135.51384 36025 ft 479 kts 226°
2026-04-20 07:16 13.92747 -135.56125 36032 ft 479 kts 226°
2026-04-20 07:17 13.87925 -135.60859 36029 ft 479 kts 226°
2026-04-20 07:17 13.83103 -135.65593 36031 ft 479 kts 226°
2026-04-20 07:18 13.78277 -135.70329 36035 ft 479 kts 226°
2026-04-20 07:18 13.73448 -135.75060 36036 ft 480 kts 226°
2026-04-20 07:19 13.68623 -135.79793 36031 ft 480 kts 226°
2026-04-20 07:19 13.63793 -135.84531 36030 ft 480 kts 226°
2026-04-20 07:20 13.58955 -135.89264 36033 ft 480 kts 226°
2026-04-20 07:20 13.54139 -135.93978 36034 ft 480 kts 226°
2026-04-20 07:21 13.49306 -135.98701 36036 ft 480 kts 226°
2026-04-20 07:21 13.44479 -136.03419 36036 ft 480 kts 226°
2026-04-20 07:22 13.39638 -136.08145 36031 ft 480 kts 226°
2026-04-20 07:22 13.34801 -136.12867 36029 ft 480 kts 226°
2026-04-20 07:23 13.29954 -136.17597 36034 ft 481 kts 226°
2026-04-20 07:23 13.25104 -136.22324 36028 ft 481 kts 226°
2026-04-20 07:24 13.20248 -136.27053 36036 ft 482 kts 226°
2026-04-20 07:24 13.15379 -136.31794 36052 ft 482 kts 226°
2026-04-20 07:25 13.10507 -136.36537 36036 ft 483 kts 226°
2026-04-20 07:25 13.05635 -136.41281 36032 ft 483 kts 226°
2026-04-20 07:26 13.00758 -136.46025 36024 ft 484 kts 226°
2026-04-20 07:26 12.95870 -136.50773 36025 ft 484 kts 226°
2026-04-20 07:27 12.91227 -136.55760 36026 ft 483 kts 230°
2026-04-20 07:27 12.86656 -136.60807 36026 ft 484 kts 229°
2026-04-20 07:28 12.82044 -136.65826 36029 ft 484 kts 229°
2026-04-20 07:28 12.77408 -136.70839 36034 ft 485 kts 229°
2026-04-20 07:29 12.72769 -136.75856 36036 ft 485 kts 229°
2026-04-20 07:29 12.68127 -136.80874 36033 ft 485 kts 229°
2026-04-20 07:30 12.63484 -136.85889 36037 ft 485 kts 229°
2026-04-20 07:30 12.58842 -136.90899 36028 ft 485 kts 229°
2026-04-20 07:31 12.54200 -136.95905 36026 ft 485 kts 229°
2026-04-20 07:31 12.49560 -137.00906 36025 ft 484 kts 229°
2026-04-20 07:32 12.44921 -137.05906 36022 ft 484 kts 229°
2026-04-20 07:32 12.40277 -137.10909 36022 ft 485 kts 229°
2026-04-20 07:33 12.35633 -137.15910 36027 ft 485 kts 229°
2026-04-20 07:33 12.30977 -137.20915 36029 ft 485 kts 229°
2026-04-20 07:34 12.26325 -137.25916 36030 ft 485 kts 229°
2026-04-20 07:34 12.21671 -137.30917 36028 ft 486 kts 229°
2026-04-20 07:35 12.14697 -137.38406 36026 ft 486 kts 228°
2026-04-20 07:35 12.10046 -137.43394 36025 ft 486 kts 228°
2026-04-20 07:36 12.05381 -137.48399 36028 ft 486 kts 228°
2026-04-20 07:36 12.00746 -137.53367 36031 ft 486 kts 228°
2026-04-20 07:37 11.96044 -137.58405 36019 ft 487 kts 228°
2026-04-20 07:37 11.91371 -137.63408 36024 ft 487 kts 228°
2026-04-20 07:38 11.86721 -137.68383 36027 ft 487 kts 228°
2026-04-20 07:38 11.82039 -137.73390 36029 ft 488 kts 228°
2026-04-20 07:39 11.77353 -137.78399 36030 ft 488 kts 228°
2026-04-20 07:39 11.72667 -137.83407 36031 ft 488 kts 228°
2026-04-20 07:40 11.67979 -137.88420 36034 ft 488 kts 228°
2026-04-20 07:40 11.63288 -137.93420 36033 ft 488 kts 228°
2026-04-20 07:41 11.58594 -137.98426 36030 ft 488 kts 228°
2026-04-20 07:41 11.53916 -138.03415 36030 ft 487 kts 228°
2026-04-20 07:42 11.49231 -138.08408 36023 ft 487 kts 228°
2026-04-20 07:42 11.44542 -138.13401 36023 ft 487 kts 228°
2026-04-20 07:43 11.39859 -138.18391 36023 ft 487 kts 228°
2026-04-20 07:43 11.35167 -138.23383 36022 ft 488 kts 228°
2026-04-20 07:44 11.30469 -138.28375 36028 ft 488 kts 228°
2026-04-20 07:44 11.26562 -138.32528 36029 ft 489 kts 228°
2026-04-20 07:45 11.21859 -138.37526 36031 ft 489 kts 228°
2026-04-20 07:45 11.17150 -138.42530 36032 ft 489 kts 227°
2026-04-20 07:46 11.12444 -138.47526 36030 ft 489 kts 227°
2026-04-20 07:46 11.07730 -138.52527 36028 ft 489 kts 227°
2026-04-20 07:47 11.03017 -138.57524 36027 ft 490 kts 227°
2026-04-20 07:47 10.98298 -138.62526 36028 ft 490 kts 227°
2026-04-20 07:48 10.93580 -138.67521 36029 ft 490 kts 227°
2026-04-20 07:48 10.88862 -138.72519 36031 ft 490 kts 227°
2026-04-20 07:49 10.84138 -138.77519 36026 ft 490 kts 227°
2026-04-20 07:49 10.79414 -138.82516 36027 ft 490 kts 227°
2026-04-20 07:50 10.74722 -138.87474 36026 ft 490 kts 227°
2026-04-20 07:50 10.70000 -138.92467 36020 ft 490 kts 227°
2026-04-20 07:51 10.65291 -138.97445 36023 ft 490 kts 227°
2026-04-20 07:51 10.60561 -139.02436 36025 ft 490 kts 227°
2026-04-20 07:52 10.55828 -139.07431 36024 ft 491 kts 227°
2026-04-20 07:52 10.51090 -139.12429 36027 ft 491 kts 227°
2026-04-20 07:53 10.46350 -139.17422 36020 ft 491 kts 227°
2026-04-20 07:53 10.41608 -139.22420 36025 ft 491 kts 227°
2026-04-20 07:54 10.36895 -139.27386 36027 ft 492 kts 227°
2026-04-20 07:54 10.32145 -139.32389 36027 ft 492 kts 227°
2026-04-20 07:55 10.27391 -139.37393 36031 ft 492 kts 227°
2026-04-20 07:55 10.22632 -139.42402 36020 ft 493 kts 227°
2026-04-20 07:56 10.18157 -139.47669 36031 ft 492 kts 231°
2026-04-20 07:56 10.13766 -139.53010 36027 ft 493 kts 230°
2026-04-20 07:57 10.09339 -139.58311 36029 ft 493 kts 230°
2026-04-20 07:57 10.04884 -139.63613 36029 ft 493 kts 230°
2026-04-20 07:58 10.00434 -139.68901 36026 ft 493 kts 230°
2026-04-20 07:58 9.95980 -139.74193 36025 ft 493 kts 230°
2026-04-20 07:59 9.91525 -139.79481 36026 ft 493 kts 230°
2026-04-20 07:59 9.87072 -139.84774 36025 ft 493 kts 230°
2026-04-20 08:00 9.82613 -139.90059 36025 ft 493 kts 230°
2026-04-20 08:00 9.78183 -139.95310 36025 ft 493 kts 230°
2026-04-20 08:01 9.73721 -140.00596 36030 ft 494 kts 230°
2026-04-20 08:01 9.69258 -140.05886 36029 ft 494 kts 230°
2026-04-20 08:02 9.64794 -140.11171 36029 ft 494 kts 230°
2026-04-20 08:02 9.60324 -140.16453 36026 ft 494 kts 230°
2026-04-20 08:03 9.55858 -140.21738 36026 ft 494 kts 230°
2026-04-20 08:03 9.51396 -140.27019 36027 ft 493 kts 230°
2026-04-20 08:04 9.46932 -140.32295 36026 ft 493 kts 230°
2026-04-20 08:04 9.42472 -140.37571 36018 ft 493 kts 230°
2026-04-20 08:05 9.38006 -140.42849 36020 ft 493 kts 230°
2026-04-20 08:05 9.33533 -140.48125 36016 ft 494 kts 230°
2026-04-20 08:06 9.29060 -140.53401 36016 ft 494 kts 230°
2026-04-20 08:06 9.24585 -140.58677 36022 ft 494 kts 230°
2026-04-20 08:07 9.20113 -140.63948 36021 ft 493 kts 230°
2026-04-20 08:07 9.15649 -140.69216 36018 ft 493 kts 230°
2026-04-20 08:08 9.11175 -140.74478 36017 ft 493 kts 230°
2026-04-20 08:08 9.06709 -140.79742 36020 ft 493 kts 230°
2026-04-20 08:09 9.02267 -140.84964 36017 ft 493 kts 230°
2026-04-20 08:09 8.97800 -140.90224 36015 ft 493 kts 230°
2026-04-20 08:10 8.93330 -140.95479 36017 ft 493 kts 230°
2026-04-20 08:10 8.88858 -141.00738 36017 ft 493 kts 230°
2026-04-20 08:11 8.84390 -141.05993 36017 ft 493 kts 230°
2026-04-20 08:11 8.79921 -141.11241 36015 ft 493 kts 230°
2026-04-20 08:12 8.75443 -141.16489 36022 ft 492 kts 230°
2026-04-20 08:12 8.70978 -141.21737 36018 ft 492 kts 230°
2026-04-20 08:13 8.66511 -141.26977 36018 ft 492 kts 230°
2026-04-20 08:13 8.62044 -141.32220 36018 ft 492 kts 230°
2026-04-20 08:14 8.57580 -141.37454 36015 ft 492 kts 230°
2026-04-20 08:14 8.53110 -141.42687 36011 ft 491 kts 230°
2026-04-20 08:15 8.48650 -141.47914 36007 ft 491 kts 230°
2026-04-20 08:15 8.44191 -141.53137 36004 ft 491 kts 230°
2026-04-20 08:16 8.39729 -141.58359 36003 ft 491 kts 230°
2026-04-20 08:16 8.35339 -141.63636 36006 ft 490 kts 232°
2026-04-20 08:17 8.31104 -141.69034 36007 ft 490 kts 232°
2026-04-20 08:17 8.26848 -141.74413 36007 ft 490 kts 232°
2026-04-20 08:18 8.22582 -141.79779 36002 ft 490 kts 231°
2026-04-20 08:18 8.18311 -141.85140 36006 ft 490 kts 232°
2026-04-20 08:19 8.14039 -141.90501 36005 ft 490 kts 232°
2026-04-20 08:19 8.09768 -141.95863 36006 ft 490 kts 232°
2026-04-20 08:20 8.05494 -142.01223 36008 ft 490 kts 232°
2026-04-20 08:20 8.01215 -142.06583 36011 ft 491 kts 232°
2026-04-20 08:21 7.96960 -142.11911 36010 ft 491 kts 232°
2026-04-20 08:21 7.92678 -142.17275 36009 ft 491 kts 232°
2026-04-20 08:22 7.88398 -142.22634 36011 ft 491 kts 232°
2026-04-20 08:22 7.84117 -142.27992 36011 ft 490 kts 232°
2026-04-20 08:23 7.79835 -142.33347 36010 ft 490 kts 231°
2026-04-20 08:23 7.75566 -142.38689 36006 ft 490 kts 231°
2026-04-20 08:24 7.71285 -142.44044 36010 ft 490 kts 231°
2026-04-20 08:24 7.67003 -142.49394 36010 ft 490 kts 231°
2026-04-20 08:25 7.62731 -142.54727 36005 ft 490 kts 231°
2026-04-20 08:25 7.58476 -142.60042 36007 ft 490 kts 231°
2026-04-20 08:26 7.54191 -142.65394 36013 ft 491 kts 231°
2026-04-20 08:26 7.49898 -142.70752 36010 ft 492 kts 231°
2026-04-20 08:27 7.45600 -142.76111 36012 ft 492 kts 231°
2026-04-20 08:27 7.41304 -142.81468 36013 ft 492 kts 231°
2026-04-20 08:28 7.36998 -142.86837 36018 ft 492 kts 231°
2026-04-20 08:28 7.32695 -142.92204 36014 ft 492 kts 231°
2026-04-20 08:29 7.28385 -142.97569 36014 ft 493 kts 231°
2026-04-20 08:29 7.24076 -143.02936 36014 ft 493 kts 231°
2026-04-20 08:30 7.19766 -143.08302 36015 ft 493 kts 231°
2026-04-20 08:30 7.15455 -143.13670 36017 ft 493 kts 231°
2026-04-20 08:31 7.11145 -143.19032 36011 ft 493 kts 231°
2026-04-20 08:31 7.06828 -143.24399 36009 ft 493 kts 231°
2026-04-20 08:32 7.02516 -143.29760 36010 ft 493 kts 231°
2026-04-20 08:32 6.98202 -143.35125 36010 ft 493 kts 231°
2026-04-20 08:33 6.91726 -143.43167 36007 ft 493 kts 231°
2026-04-20 08:34 6.87414 -143.48526 36005 ft 492 kts 231°
2026-04-20 08:34 6.83102 -143.53876 35996 ft 493 kts 231°
2026-04-20 08:35 6.78775 -143.59243 35990 ft 493 kts 231°
2026-04-20 08:35 6.75181 -143.63704 35993 ft 494 kts 231°
2026-04-20 08:36 6.70855 -143.69073 35998 ft 494 kts 231°
2026-04-20 08:36 6.66521 -143.74448 35997 ft 495 kts 231°
2026-04-20 08:37 6.62185 -143.79825 36002 ft 495 kts 231°
2026-04-20 08:37 6.57839 -143.85210 36005 ft 496 kts 231°
2026-04-20 08:38 6.53494 -143.90596 36006 ft 496 kts 231°
2026-04-20 08:38 6.49146 -143.95977 36005 ft 496 kts 231°
2026-04-20 08:39 6.44795 -144.01361 36001 ft 496 kts 231°
2026-04-20 08:39 6.40449 -144.06743 35997 ft 496 kts 231°
2026-04-20 08:40 6.36097 -144.12127 35999 ft 496 kts 231°
2026-04-20 08:40 6.31747 -144.17504 35997 ft 496 kts 231°
2026-04-20 08:41 6.27393 -144.22891 36000 ft 496 kts 231°
2026-04-20 08:41 6.23040 -144.28281 35998 ft 497 kts 231°
2026-04-20 08:42 6.18679 -144.33661 36000 ft 497 kts 231°
2026-04-20 08:42 6.14323 -144.39038 35999 ft 496 kts 231°
2026-04-20 08:43 6.09957 -144.44434 36001 ft 497 kts 231°
2026-04-20 08:43 6.05596 -144.49823 35999 ft 497 kts 231°
2026-04-20 08:44 6.01227 -144.55216 36000 ft 498 kts 231°
2026-04-20 08:44 5.96855 -144.60614 36004 ft 498 kts 231°
2026-04-20 08:45 5.92483 -144.66004 36003 ft 498 kts 231°
2026-04-20 08:45 5.88108 -144.71403 36004 ft 498 kts 231°
2026-04-20 08:46 5.83737 -144.76793 36001 ft 498 kts 231°
2026-04-20 08:46 5.79362 -144.82188 36000 ft 498 kts 231°
2026-04-20 08:47 5.74987 -144.87576 35984 ft 498 kts 231°
2026-04-20 08:47 5.70613 -144.92970 35991 ft 498 kts 231°
2026-04-20 08:48 5.66235 -144.98361 35985 ft 498 kts 231°
2026-04-20 08:48 5.61859 -145.03750 35995 ft 498 kts 231°
2026-04-20 08:49 5.57483 -145.09138 35990 ft 498 kts 231°
2026-04-20 08:49 5.53101 -145.14533 35990 ft 498 kts 231°
2026-04-20 08:50 5.48720 -145.19924 35998 ft 499 kts 231°
2026-04-20 08:50 5.44336 -145.25324 35985 ft 499 kts 231°
2026-04-20 08:51 5.39944 -145.30712 35995 ft 499 kts 231°
2026-04-20 08:51 5.35554 -145.36112 35990 ft 499 kts 231°
2026-04-20 08:52 5.31165 -145.41512 35994 ft 499 kts 231°
2026-04-20 08:52 5.26762 -145.46913 35996 ft 500 kts 231°
2026-04-20 08:53 5.22330 -145.52286 35997 ft 499 kts 230°
2026-04-20 08:53 5.17896 -145.57648 35993 ft 499 kts 230°
2026-04-20 08:54 5.13492 -145.62975 35994 ft 499 kts 230°
2026-04-20 08:54 5.09034 -145.68374 35990 ft 499 kts 230°
2026-04-20 08:55 5.04606 -145.73739 35986 ft 499 kts 230°
2026-04-20 08:55 5.00209 -145.79063 35989 ft 499 kts 230°
2026-04-20 08:56 4.95783 -145.84419 35986 ft 499 kts 230°
2026-04-20 08:56 4.91356 -145.89774 35997 ft 499 kts 230°
2026-04-20 08:57 4.86925 -145.95134 35992 ft 499 kts 231°
2026-04-20 08:57 4.82498 -146.00492 35985 ft 499 kts 231°
2026-04-20 08:58 4.78066 -146.05852 35994 ft 499 kts 231°
2026-04-20 08:58 4.73634 -146.11211 35993 ft 499 kts 230°
2026-04-20 08:59 4.69206 -146.16565 35996 ft 499 kts 230°
2026-04-20 08:59 4.64771 -146.21918 35993 ft 499 kts 230°
2026-04-20 09:00 4.60341 -146.27274 35985 ft 499 kts 230°
2026-04-20 09:00 4.55910 -146.32624 35985 ft 499 kts 230°
2026-04-20 09:01 4.51481 -146.37976 35983 ft 498 kts 230°
2026-04-20 09:01 4.47054 -146.43322 35982 ft 498 kts 230°
2026-04-20 09:02 4.42640 -146.48655 35980 ft 497 kts 231°
2026-04-20 09:02 4.38245 -146.53958 35979 ft 497 kts 231°
2026-04-20 09:03 4.33827 -146.59287 35977 ft 497 kts 230°
2026-04-20 09:03 4.29426 -146.64595 35980 ft 497 kts 230°
2026-04-20 09:04 4.25002 -146.69929 35981 ft 498 kts 231°
2026-04-20 09:04 4.20580 -146.75265 35984 ft 498 kts 231°
2026-04-20 09:05 4.16150 -146.80608 35993 ft 498 kts 231°
2026-04-20 09:05 4.11721 -146.85947 35997 ft 498 kts 231°
2026-04-20 09:06 4.07294 -146.91286 35991 ft 498 kts 231°
2026-04-20 09:06 4.02868 -146.96620 35989 ft 498 kts 231°
2026-04-20 09:07 3.98448 -147.01948 35977 ft 497 kts 231°
2026-04-20 09:07 3.94024 -147.07269 35972 ft 497 kts 231°
2026-04-20 09:08 3.89606 -147.12593 35972 ft 497 kts 231°
2026-04-20 09:08 3.85187 -147.17912 35978 ft 497 kts 231°
2026-04-20 09:09 3.80771 -147.23229 35976 ft 496 kts 231°
2026-04-20 09:09 3.76360 -147.28539 35972 ft 496 kts 231°
2026-04-20 09:10 3.71972 -147.33819 35975 ft 496 kts 231°
2026-04-20 09:10 3.67561 -147.39128 35973 ft 496 kts 231°
2026-04-20 09:11 3.63148 -147.44438 35970 ft 496 kts 231°
2026-04-20 09:11 3.58739 -147.49746 35983 ft 496 kts 231°
2026-04-20 09:12 3.54331 -147.55049 35988 ft 496 kts 231°
2026-04-20 09:12 3.49918 -147.60355 35992 ft 496 kts 231°
2026-04-20 09:13 3.45504 -147.65668 35995 ft 497 kts 231°
2026-04-20 09:13 3.41084 -147.70979 35995 ft 497 kts 231°
2026-04-20 09:14 3.36657 -147.76294 35994 ft 497 kts 231°
2026-04-20 09:14 3.32234 -147.81609 35996 ft 497 kts 231°
2026-04-20 09:15 3.27813 -147.86920 35992 ft 496 kts 231°
2026-04-20 09:15 3.23395 -147.92222 35994 ft 496 kts 231°
2026-04-20 09:16 3.18980 -147.97530 35976 ft 496 kts 231°
2026-04-20 09:16 3.14564 -148.02838 35984 ft 496 kts 231°
2026-04-20 09:17 3.10147 -148.08140 35985 ft 496 kts 231°
2026-04-20 09:17 3.05729 -148.13445 35984 ft 496 kts 231°
2026-04-20 09:18 3.01311 -148.18751 35984 ft 496 kts 231°
2026-04-20 09:18 2.96893 -148.24053 35985 ft 496 kts 231°
2026-04-20 09:19 2.92482 -148.29354 35980 ft 495 kts 231°
2026-04-20 09:19 2.88064 -148.34649 35983 ft 496 kts 231°
2026-04-20 09:20 2.83560 -148.39869 35982 ft 496 kts 227°
2026-04-20 09:20 2.78814 -148.44887 35980 ft 497 kts 228°
2026-04-20 09:21 2.74880 -148.49074 35983 ft 497 kts 228°
2026-04-20 09:21 2.70143 -148.54111 35986 ft 497 kts 228°
2026-04-20 09:22 2.65421 -148.59130 35985 ft 497 kts 228°
2026-04-20 09:22 2.59912 -148.64983 35994 ft 497 kts 228°
2026-04-20 09:23 2.55942 -148.69203 35979 ft 497 kts 227°
2026-04-20 09:23 2.51204 -148.74234 35986 ft 497 kts 228°
2026-04-20 09:24 2.46465 -148.79266 35982 ft 497 kts 228°
2026-04-20 09:24 2.41721 -148.84302 35985 ft 497 kts 228°
2026-04-20 09:25 2.37013 -148.89298 35994 ft 497 kts 228°
2026-04-20 09:25 2.32240 -148.94363 35983 ft 497 kts 228°
2026-04-20 09:26 2.27535 -148.99360 35985 ft 497 kts 228°
2026-04-20 09:26 2.22801 -149.04381 35981 ft 496 kts 228°
2026-04-20 09:27 2.18065 -149.09409 35984 ft 496 kts 228°
2026-04-20 09:27 2.13333 -149.14431 35976 ft 497 kts 228°
2026-04-20 09:28 2.08597 -149.19460 35974 ft 496 kts 228°
2026-04-20 09:28 2.03861 -149.24483 35974 ft 496 kts 228°
2026-04-20 09:29 1.99126 -149.29510 35970 ft 496 kts 227°
2026-04-20 09:29 1.94397 -149.34530 35948 ft 496 kts 227°
2026-04-20 09:30 1.89660 -149.39552 35949 ft 497 kts 227°
2026-04-20 09:30 1.84919 -149.44577 35951 ft 497 kts 227°
2026-04-20 09:31 1.80180 -149.49604 35951 ft 497 kts 227°
2026-04-20 09:31 1.75443 -149.54627 35953 ft 497 kts 227°
2026-04-20 09:32 1.70700 -149.59658 35957 ft 497 kts 227°
2026-04-20 09:32 1.65955 -149.64685 35956 ft 497 kts 227°
2026-04-20 09:33 1.61210 -149.69719 35949 ft 498 kts 227°
2026-04-20 09:33 1.56460 -149.74750 35949 ft 497 kts 227°
2026-04-20 09:34 1.51712 -149.79783 35950 ft 498 kts 227°
2026-04-20 09:34 1.44590 -149.87333 35949 ft 498 kts 227°
2026-04-20 09:35 1.39844 -149.92365 35950 ft 498 kts 227°
2026-04-20 09:35 1.35090 -149.97403 35952 ft 498 kts 227°
2026-04-20 09:36 1.30340 -150.02441 35951 ft 498 kts 227°
2026-04-20 09:36 1.25586 -150.07476 35949 ft 498 kts 227°
2026-04-20 09:37 1.20839 -150.12512 35948 ft 498 kts 227°
2026-04-20 09:37 1.16084 -150.17545 35948 ft 498 kts 227°
2026-04-20 09:38 1.11331 -150.22576 35947 ft 498 kts 227°
2026-04-20 09:38 1.06574 -150.27617 35949 ft 498 kts 227°
2026-04-20 09:39 1.01816 -150.32659 35950 ft 499 kts 227°
2026-04-20 09:39 0.97064 -150.37693 35950 ft 499 kts 227°
2026-04-20 09:40 0.92333 -150.42696 35943 ft 498 kts 227°
2026-04-20 09:40 0.87549 -150.47769 35945 ft 498 kts 227°
2026-04-20 09:41 0.82827 -150.52775 35945 ft 499 kts 227°
2026-04-20 09:41 0.78061 -150.57830 35953 ft 499 kts 227°
2026-04-20 09:42 0.73291 -150.62876 35954 ft 499 kts 227°
2026-04-20 09:42 0.68522 -150.67922 35951 ft 499 kts 227°
2026-04-20 09:43 0.63784 -150.72942 35946 ft 499 kts 227°
2026-04-20 09:43 0.59017 -150.77990 35947 ft 499 kts 227°
2026-04-20 09:44 0.54254 -150.83039 35946 ft 499 kts 227°
2026-04-20 09:44 0.49487 -150.88083 35950 ft 499 kts 227°
2026-04-20 09:45 0.44717 -150.93131 35950 ft 500 kts 227°
2026-04-20 09:45 0.39950 -150.98181 35950 ft 500 kts 227°
2026-04-20 09:46 0.35190 -151.03245 35948 ft 499 kts 229°
2026-04-20 09:46 0.30693 -151.08525 35945 ft 499 kts 230°
2026-04-20 09:47 0.26221 -151.13829 35942 ft 499 kts 230°
2026-04-20 09:47 0.21745 -151.19067 35944 ft 499 kts 230°
2026-04-20 09:48 0.17232 -151.24333 35944 ft 499 kts 230°
2026-04-20 09:48 0.12714 -151.29602 35944 ft 499 kts 230°
2026-04-20 09:49 0.08199 -151.34875 35945 ft 500 kts 230°
2026-04-20 09:49 0.03675 -151.40148 35948 ft 500 kts 230°
2026-04-20 09:50 -0.00847 -151.45418 35946 ft 500 kts 229°
2026-04-20 09:50 -0.05360 -151.50682 35949 ft 500 kts 229°
2026-04-20 09:51 -0.09886 -151.55965 35951 ft 500 kts 229°
2026-04-20 09:51 -0.14416 -151.61250 35949 ft 500 kts 229°
2026-04-20 09:52 -0.18916 -151.66496 35951 ft 501 kts 229°
2026-04-20 09:52 -0.23436 -151.71776 35946 ft 500 kts 229°
2026-04-20 09:53 -0.27962 -151.77049 35945 ft 500 kts 229°
2026-04-20 09:53 -0.32479 -151.82322 35944 ft 500 kts 229°
2026-04-20 09:54 -0.36989 -151.87582 35943 ft 500 kts 230°
2026-04-20 09:54 -0.41501 -151.92848 35944 ft 500 kts 230°
2026-04-20 09:55 -0.46022 -151.98121 35944 ft 499 kts 229°
2026-04-20 09:55 -0.50537 -152.03397 35936 ft 499 kts 229°
2026-04-20 09:56 -0.55059 -152.08667 35946 ft 500 kts 229°
2026-04-20 09:56 -0.59577 -152.13935 35945 ft 500 kts 229°
2026-04-20 09:57 -0.64111 -152.19224 35951 ft 501 kts 229°
2026-04-20 09:57 -0.68644 -152.24505 35950 ft 501 kts 229°
2026-04-20 09:58 -0.73177 -152.29799 35952 ft 501 kts 229°
2026-04-20 09:58 -0.77671 -152.35049 35948 ft 501 kts 229°
2026-04-20 09:59 -0.82205 -152.40342 35949 ft 501 kts 229°
2026-04-20 09:59 -0.86740 -152.45632 35950 ft 501 kts 229°
2026-04-20 10:00 -0.91271 -152.50919 35946 ft 501 kts 229°
2026-04-20 10:00 -0.95796 -152.56202 35944 ft 500 kts 229°
2026-04-20 10:01 -1.00321 -152.61485 35941 ft 500 kts 229°
2026-04-20 10:01 -1.04848 -152.66766 35941 ft 500 kts 229°
2026-04-20 10:02 -1.09367 -152.72041 35939 ft 500 kts 229°
2026-04-20 10:02 -1.13894 -152.77323 35941 ft 500 kts 229°
2026-04-20 10:03 -1.18419 -152.82606 35945 ft 500 kts 229°
2026-04-20 10:03 -1.22944 -152.87891 35945 ft 500 kts 229°
2026-04-20 10:04 -1.27473 -152.93177 35947 ft 501 kts 229°
2026-04-20 10:04 -1.32001 -152.98462 35948 ft 501 kts 229°
2026-04-20 10:05 -1.36517 -153.03733 35952 ft 501 kts 229°
2026-04-20 10:05 -1.41042 -153.09023 35950 ft 501 kts 229°
2026-04-20 10:06 -1.45572 -153.14312 35951 ft 501 kts 229°
2026-04-20 10:06 -1.50101 -153.19598 35952 ft 501 kts 229°
2026-04-20 10:07 -1.54631 -153.24892 35952 ft 501 kts 229°
2026-04-20 10:07 -1.59128 -153.30143 35952 ft 500 kts 229°
2026-04-20 10:08 -1.63656 -153.35432 35952 ft 501 kts 229°
2026-04-20 10:08 -1.68178 -153.40715 35950 ft 500 kts 229°
2026-04-20 10:09 -1.72695 -153.45992 35945 ft 499 kts 229°
2026-04-20 10:09 -1.77191 -153.51245 35938 ft 498 kts 229°
2026-04-20 10:10 -1.81696 -153.56509 35938 ft 498 kts 229°
2026-04-20 10:10 -1.86201 -153.61773 35936 ft 498 kts 229°
2026-04-20 10:11 -1.90686 -153.67016 35934 ft 498 kts 229°
2026-04-20 10:11 -1.95187 -153.72278 35938 ft 498 kts 229°
2026-04-20 10:12 -1.98927 -153.76648 35938 ft 497 kts 229°
2026-04-20 10:12 -2.03422 -153.81902 35934 ft 497 kts 229°
2026-04-20 10:13 -2.07907 -153.87146 35937 ft 497 kts 229°
2026-04-20 10:13 -2.12408 -153.92406 35938 ft 498 kts 229°
2026-04-20 10:14 -2.16914 -153.97674 35944 ft 498 kts 229°
2026-04-20 10:14 -2.21418 -154.02943 35947 ft 499 kts 229°
2026-04-20 10:15 -2.25925 -154.08215 35947 ft 498 kts 229°
2026-04-20 10:15 -2.30431 -154.13487 35947 ft 499 kts 229°
2026-04-20 10:16 -2.34935 -154.18755 35949 ft 499 kts 229°
2026-04-20 10:16 -2.39443 -154.24030 35951 ft 499 kts 229°
2026-04-20 10:17 -2.43949 -154.29307 35950 ft 499 kts 229°
2026-04-20 10:17 -2.48455 -154.34573 35953 ft 499 kts 229°
2026-04-20 10:18 -2.52959 -154.39846 35953 ft 498 kts 229°
2026-04-20 10:18 -2.57466 -154.45118 35952 ft 498 kts 229°
2026-04-20 10:19 -2.61934 -154.50349 35951 ft 498 kts 229°
2026-04-20 10:19 -2.66430 -154.55607 35950 ft 498 kts 229°
2026-04-20 10:20 -2.70929 -154.60865 35949 ft 497 kts 229°
2026-04-20 10:20 -2.75411 -154.66125 35945 ft 497 kts 229°
2026-04-20 10:21 -2.79895 -154.71379 35945 ft 496 kts 229°
2026-04-20 10:21 -2.84377 -154.76632 35946 ft 496 kts 229°
2026-04-20 10:22 -2.88861 -154.81885 35950 ft 496 kts 229°
2026-04-20 10:22 -2.91109 -154.84519 36183 ft 499 kts 229°
2026-04-20 10:22 -2.93362 -154.87157 36618 ft 498 kts 229°
2026-04-20 10:23 -2.95607 -154.89791 37026 ft 497 kts 229°
2026-04-20 10:23 -2.97840 -154.92408 37598 ft 492 kts 229°
2026-04-20 10:23 -3.00062 -154.95012 37891 ft 493 kts 229°
2026-04-20 10:23 -3.02266 -154.97597 37936 ft 485 kts 228°
2026-04-20 10:24 -3.06635 -155.02716 37946 ft 485 kts 228°
2026-04-20 10:24 -3.11014 -155.07855 37946 ft 485 kts 229°
2026-04-20 10:25 -3.15236 -155.13125 37949 ft 485 kts 231°
2026-04-20 10:25 -3.19420 -155.18415 37941 ft 485 kts 230°
2026-04-20 10:26 -3.23633 -155.23701 37935 ft 485 kts 230°
2026-04-20 10:26 -3.27846 -155.28968 37945 ft 485 kts 230°
2026-04-20 10:27 -3.32061 -155.34236 37941 ft 485 kts 230°
2026-04-20 10:27 -3.36275 -155.39508 37945 ft 485 kts 230°
2026-04-20 10:28 -3.40492 -155.44771 37939 ft 485 kts 230°
2026-04-20 10:28 -3.44698 -155.50039 37938 ft 484 kts 230°
2026-04-20 10:29 -3.48905 -155.55304 37951 ft 484 kts 230°
2026-04-20 10:29 -3.53084 -155.60534 37938 ft 484 kts 230°
2026-04-20 10:30 -3.57279 -155.65786 37947 ft 484 kts 230°
2026-04-20 10:30 -3.61481 -155.71044 37938 ft 484 kts 230°
2026-04-20 10:31 -3.65680 -155.76301 37939 ft 483 kts 230°
2026-04-20 10:31 -3.69880 -155.81559 37937 ft 483 kts 230°
2026-04-20 10:32 -3.74079 -155.86816 37941 ft 483 kts 230°
2026-04-20 10:32 -3.78273 -155.92073 37940 ft 483 kts 230°
2026-04-20 10:33 -3.82467 -155.97335 37938 ft 483 kts 230°
2026-04-20 10:33 -3.86654 -156.02578 37939 ft 483 kts 230°
2026-04-20 10:34 -3.90850 -156.07834 37941 ft 483 kts 230°
2026-04-20 10:35 -3.97144 -156.15727 37942 ft 484 kts 230°
2026-04-20 10:35 -4.01342 -156.20991 37942 ft 483 kts 230°
2026-04-20 10:36 -4.05539 -156.26253 37941 ft 483 kts 230°
2026-04-20 10:36 -4.09740 -156.31516 37952 ft 484 kts 230°
2026-04-20 10:37 -4.13937 -156.36781 37948 ft 484 kts 230°
2026-04-20 10:37 -4.18125 -156.42040 37942 ft 483 kts 230°
2026-04-20 10:38 -4.22321 -156.47308 37941 ft 483 kts 230°
2026-04-20 10:38 -4.26501 -156.52555 37942 ft 483 kts 230°
2026-04-20 10:39 -4.30682 -156.57805 37937 ft 482 kts 230°
2026-04-20 10:39 -4.34868 -156.63061 37935 ft 482 kts 230°
2026-04-20 10:40 -4.39021 -156.68276 37938 ft 482 kts 230°
2026-04-20 10:40 -4.43201 -156.73527 37948 ft 482 kts 230°
2026-04-20 10:41 -4.47377 -156.78775 37949 ft 482 kts 230°
2026-04-20 10:41 -4.51561 -156.84033 37943 ft 482 kts 230°
2026-04-20 10:42 -4.55744 -156.89287 37948 ft 482 kts 230°
2026-04-20 10:42 -4.59924 -156.94544 37944 ft 482 kts 230°
2026-04-20 10:43 -4.64103 -156.99800 37941 ft 482 kts 230°
2026-04-20 10:43 -4.68284 -157.05059 37943 ft 482 kts 230°
2026-04-20 10:44 -4.72462 -157.10317 37940 ft 482 kts 230°
2026-04-20 10:44 -4.76641 -157.15574 37950 ft 482 kts 230°
2026-04-20 10:45 -4.80818 -157.20833 37942 ft 482 kts 230°
2026-04-20 10:45 -4.84993 -157.26089 37941 ft 482 kts 230°
2026-04-20 10:46 -4.89164 -157.31340 37942 ft 482 kts 230°
2026-04-20 10:46 -4.93338 -157.36594 37941 ft 481 kts 230°
2026-04-20 10:47 -4.97509 -157.41851 37937 ft 481 kts 230°
2026-04-20 10:47 -5.01676 -157.47107 37937 ft 481 kts 231°
2026-04-20 10:48 -5.05831 -157.52373 37938 ft 481 kts 231°
2026-04-20 10:48 -5.09982 -157.57641 37949 ft 481 kts 230°
2026-04-20 10:49 -5.14137 -157.62906 37936 ft 481 kts 231°
2026-04-20 10:49 -5.18286 -157.68172 37939 ft 481 kts 231°
2026-04-20 10:50 -5.22437 -157.73442 37940 ft 481 kts 231°
2026-04-20 10:50 -5.26585 -157.78705 37942 ft 481 kts 231°
2026-04-20 10:51 -5.30745 -157.83981 37943 ft 482 kts 231°
2026-04-20 10:51 -5.34903 -157.89253 37941 ft 482 kts 231°
2026-04-20 10:52 -5.39056 -157.94527 37942 ft 482 kts 231°
2026-04-20 10:52 -5.43204 -157.99801 37948 ft 481 kts 231°
2026-04-20 10:53 -5.47356 -158.05074 37944 ft 481 kts 231°
2026-04-20 10:53 -5.51502 -158.10340 37949 ft 481 kts 231°
2026-04-20 10:54 -5.55614 -158.15570 37940 ft 480 kts 231°
2026-04-20 10:54 -5.59779 -158.20864 37939 ft 480 kts 231°
2026-04-20 10:55 -5.63888 -158.26087 37942 ft 480 kts 231°
2026-04-20 10:55 -5.68025 -158.31349 37939 ft 480 kts 231°
2026-04-20 10:56 -5.72159 -158.36609 37937 ft 480 kts 231°
2026-04-20 10:56 -5.76286 -158.41861 37938 ft 480 kts 231°
2026-04-20 10:57 -5.80422 -158.47127 37946 ft 480 kts 231°
2026-04-20 10:57 -5.84560 -158.52396 37939 ft 481 kts 231°
2026-04-20 10:58 -5.88701 -158.57672 37948 ft 481 kts 231°
2026-04-20 10:58 -5.92840 -158.62944 37941 ft 481 kts 231°
2026-04-20 10:59 -5.96982 -158.68222 37941 ft 481 kts 231°
2026-04-20 10:59 -6.00423 -158.72607 37946 ft 481 kts 231°
2026-04-20 11:00 -6.04560 -158.77880 37942 ft 481 kts 231°
2026-04-20 11:00 -6.08694 -158.83153 37945 ft 480 kts 230°
2026-04-20 11:01 -6.12823 -158.88418 37947 ft 479 kts 230°
2026-04-20 11:01 -6.16946 -158.93680 37938 ft 479 kts 230°
2026-04-20 11:02 -6.21088 -158.98926 37941 ft 479 kts 230°
2026-04-20 11:02 -6.25233 -159.04158 37943 ft 479 kts 230°
2026-04-20 11:03 -6.29378 -159.09395 37939 ft 478 kts 230°
2026-04-20 11:03 -6.33518 -159.14629 37947 ft 479 kts 230°
2026-04-20 11:04 -6.37656 -159.19871 37944 ft 478 kts 230°
2026-04-20 11:04 -6.41799 -159.25111 37940 ft 478 kts 230°
2026-04-20 11:05 -6.45934 -159.30347 37939 ft 478 kts 230°
2026-04-20 11:05 -6.50072 -159.35594 37948 ft 479 kts 230°
2026-04-20 11:06 -6.54206 -159.40836 37941 ft 478 kts 230°
2026-04-20 11:06 -6.58345 -159.46081 37946 ft 479 kts 230°
2026-04-20 11:07 -6.62483 -159.51327 37959 ft 479 kts 230°
2026-04-20 11:07 -6.66616 -159.56568 37942 ft 478 kts 230°
2026-04-20 11:08 -6.70749 -159.61807 37939 ft 478 kts 230°
2026-04-20 11:08 -6.74880 -159.67052 37942 ft 478 kts 230°
2026-04-20 11:09 -6.79007 -159.72292 37943 ft 478 kts 230°
2026-04-20 11:09 -6.83107 -159.77496 37941 ft 478 kts 230°
2026-04-20 11:10 -6.87231 -159.82734 37944 ft 478 kts 230°
2026-04-20 11:10 -6.91357 -159.87975 37942 ft 478 kts 230°
2026-04-20 11:11 -6.95478 -159.93218 37934 ft 477 kts 230°
2026-04-20 11:11 -6.99597 -159.98454 37940 ft 477 kts 230°
2026-04-20 11:12 -7.03716 -160.03690 37933 ft 477 kts 229°
2026-04-20 11:12 -7.07827 -160.08917 37933 ft 476 kts 229°
2026-04-20 11:13 -7.11938 -160.14143 37931 ft 476 kts 229°
2026-04-20 11:13 -7.16037 -160.19368 37933 ft 476 kts 229°
2026-04-20 11:14 -7.20141 -160.24594 37932 ft 475 kts 229°
2026-04-20 11:14 -7.24243 -160.29819 37932 ft 475 kts 229°
2026-04-20 11:15 -7.28343 -160.35043 37930 ft 475 kts 229°
2026-04-20 11:15 -7.32442 -160.40269 37934 ft 475 kts 229°
2026-04-20 11:16 -7.36537 -160.45488 37934 ft 475 kts 229°
2026-04-20 11:16 -7.40635 -160.50715 37936 ft 475 kts 229°
2026-04-20 11:17 -7.44731 -160.55944 37932 ft 475 kts 229°
2026-04-20 11:17 -7.48797 -160.61134 37933 ft 475 kts 229°
2026-04-20 11:18 -7.52892 -160.66358 37933 ft 475 kts 229°
2026-04-20 11:18 -7.56985 -160.71584 37931 ft 474 kts 229°
2026-04-20 11:19 -7.61073 -160.76808 37928 ft 475 kts 229°
2026-04-20 11:19 -7.65164 -160.82037 37929 ft 475 kts 229°
2026-04-20 11:20 -7.69252 -160.87274 37940 ft 475 kts 229°
2026-04-20 11:20 -7.73346 -160.92506 37938 ft 475 kts 229°
2026-04-20 11:21 -7.77439 -160.97735 37936 ft 475 kts 229°
2026-04-20 11:21 -7.81526 -161.02967 37936 ft 475 kts 229°
2026-04-20 11:22 -7.85611 -161.08202 37932 ft 475 kts 229°
2026-04-20 11:22 -7.89692 -161.13434 37933 ft 475 kts 229°
2026-04-20 11:23 -7.93778 -161.18666 37929 ft 475 kts 229°
2026-04-20 11:23 -7.97867 -161.23902 37933 ft 475 kts 229°
2026-04-20 11:24 -8.01956 -161.29138 37938 ft 475 kts 229°
2026-04-20 11:24 -8.06036 -161.34373 37939 ft 474 kts 229°
2026-04-20 11:25 -8.10114 -161.39608 37938 ft 474 kts 229°
2026-04-20 11:25 -8.14190 -161.44838 37933 ft 474 kts 229°
2026-04-20 11:26 -8.18266 -161.50073 37929 ft 474 kts 229°
2026-04-20 11:26 -8.22339 -161.55305 37935 ft 474 kts 229°
2026-04-20 11:27 -8.26413 -161.60539 37926 ft 474 kts 229°
2026-04-20 11:27 -8.30474 -161.65761 37933 ft 474 kts 229°
2026-04-20 11:28 -8.34546 -161.70997 37932 ft 474 kts 229°
2026-04-20 11:28 -8.38618 -161.76235 37933 ft 474 kts 229°
2026-04-20 11:29 -8.42690 -161.81475 37934 ft 474 kts 229°
2026-04-20 11:29 -8.46762 -161.86717 37933 ft 474 kts 229°
2026-04-20 11:30 -8.50830 -161.91963 37939 ft 475 kts 229°
2026-04-20 11:30 -8.54905 -161.97209 37942 ft 474 kts 229°
2026-04-20 11:31 -8.58973 -162.02450 37934 ft 474 kts 229°
2026-04-20 11:31 -8.63040 -162.07695 37930 ft 474 kts 229°
2026-04-20 11:32 -8.67104 -162.12937 37932 ft 474 kts 229°
2026-04-20 11:32 -8.71169 -162.18180 37925 ft 474 kts 229°
2026-04-20 11:33 -8.75235 -162.23430 37929 ft 474 kts 229°
2026-04-20 11:33 -8.79304 -162.28687 37931 ft 475 kts 229°
2026-04-20 11:34 -8.83350 -162.33911 37934 ft 475 kts 229°
2026-04-20 11:34 -8.87453 -162.39211 37934 ft 476 kts 229°
2026-04-20 11:35 -8.91500 -162.44448 37945 ft 476 kts 229°
2026-04-20 11:35 -8.95576 -162.49723 37936 ft 476 kts 229°
2026-04-20 11:36 -8.99655 -162.54999 37942 ft 476 kts 229°
2026-04-20 11:36 -9.03733 -162.60279 37937 ft 476 kts 229°
2026-04-20 11:37 -9.07811 -162.65556 37943 ft 476 kts 229°
2026-04-20 11:37 -9.13915 -162.73472 37940 ft 476 kts 229°
2026-04-20 11:38 -9.17975 -162.78736 37944 ft 476 kts 229°
2026-04-20 11:38 -9.22049 -162.84018 37945 ft 476 kts 229°
2026-04-20 11:39 -9.26125 -162.89302 37949 ft 476 kts 229°
2026-04-20 11:39 -9.30167 -162.94554 37942 ft 476 kts 229°
2026-04-20 11:40 -9.34243 -162.99845 37942 ft 476 kts 229°
2026-04-20 11:40 -9.38315 -163.05132 37947 ft 477 kts 229°
2026-04-20 11:41 -9.42395 -163.10436 37938 ft 477 kts 229°
2026-04-20 11:41 -9.46481 -163.15725 37940 ft 477 kts 229°
2026-04-20 11:42 -9.50585 -163.21005 37942 ft 477 kts 229°
2026-04-20 11:42 -9.54686 -163.26294 37944 ft 477 kts 229°
2026-04-20 11:43 -9.58789 -163.31585 37949 ft 478 kts 229°
2026-04-20 11:43 -9.62895 -163.36881 37941 ft 478 kts 229°
2026-04-20 11:44 -9.67001 -163.42181 37947 ft 478 kts 229°
2026-04-20 11:44 -9.71104 -163.47482 37943 ft 478 kts 229°
2026-04-20 11:45 -9.75215 -163.52794 37952 ft 479 kts 229°
2026-04-20 11:45 -9.79297 -163.58074 37942 ft 479 kts 229°
2026-04-20 11:46 -9.83408 -163.63389 37944 ft 480 kts 229°
2026-04-20 11:46 -9.87527 -163.68716 37957 ft 480 kts 229°
2026-04-20 11:47 -9.91642 -163.74043 37943 ft 480 kts 229°
2026-04-20 11:47 -9.95754 -163.79368 37940 ft 480 kts 229°
2026-04-20 11:48 -9.99170 -163.83798 37944 ft 480 kts 229°
2026-04-20 11:48 -10.03283 -163.89131 37947 ft 480 kts 229°
2026-04-20 11:49 -10.07399 -163.94462 37942 ft 480 kts 229°
2026-04-20 11:49 -10.11499 -163.99786 37946 ft 480 kts 229°
2026-04-20 11:50 -10.15609 -164.05125 37938 ft 480 kts 229°
2026-04-20 11:50 -10.19718 -164.10461 37934 ft 480 kts 229°
2026-04-20 11:51 -10.23824 -164.15795 37930 ft 479 kts 229°
2026-04-20 11:51 -10.27923 -164.21130 37934 ft 479 kts 229°
2026-04-20 11:52 -10.32027 -164.26465 37932 ft 479 kts 229°
2026-04-20 11:52 -10.36129 -164.31799 37925 ft 479 kts 229°
2026-04-20 11:53 -10.40222 -164.37127 37925 ft 480 kts 229°
2026-04-20 11:53 -10.44301 -164.42434 37935 ft 480 kts 229°
2026-04-20 11:54 -10.48402 -164.47787 37941 ft 480 kts 229°
2026-04-20 11:54 -10.52505 -164.53133 37952 ft 480 kts 229°
2026-04-20 11:55 -10.56615 -164.58491 37942 ft 480 kts 229°
2026-04-20 11:55 -10.60723 -164.63853 37954 ft 481 kts 229°
2026-04-20 11:56 -10.64832 -164.69216 37944 ft 481 kts 229°
2026-04-20 11:56 -10.68926 -164.74564 37948 ft 480 kts 229°
2026-04-20 11:57 -10.73031 -164.79928 37940 ft 480 kts 229°
2026-04-20 11:57 -10.77130 -164.85285 37945 ft 480 kts 229°
2026-04-20 11:58 -10.81232 -164.90648 37939 ft 480 kts 230°
2026-04-20 11:58 -10.85301 -164.95977 37938 ft 480 kts 229°
2026-04-20 11:59 -10.89403 -165.01348 37941 ft 481 kts 229°
2026-04-20 11:59 -10.93505 -165.06721 37944 ft 481 kts 230°
2026-04-20 12:00 -10.97606 -165.12097 37942 ft 481 kts 230°
2026-04-20 12:00 -11.01709 -165.17476 37945 ft 481 kts 230°
2026-04-20 12:01 -11.05810 -165.22860 37943 ft 481 kts 230°
2026-04-20 12:01 -11.09909 -165.28239 37942 ft 481 kts 230°
2026-04-20 12:02 -11.14004 -165.33617 37940 ft 481 kts 230°
2026-04-20 12:02 -11.18097 -165.38997 37937 ft 480 kts 230°
2026-04-20 12:03 -11.22193 -165.44381 37939 ft 480 kts 230°
2026-04-20 12:03 -11.26285 -165.49765 37942 ft 480 kts 230°
2026-04-20 12:04 -11.30377 -165.55149 37942 ft 481 kts 230°
2026-04-20 12:04 -11.34470 -165.60541 37951 ft 481 kts 230°
2026-04-20 12:05 -11.38561 -165.65935 37947 ft 481 kts 230°
2026-04-20 12:05 -11.42658 -165.71334 37939 ft 481 kts 230°
2026-04-20 12:06 -11.46753 -165.76732 37945 ft 482 kts 230°
2026-04-20 12:06 -11.50821 -165.82101 37946 ft 482 kts 230°
2026-04-20 12:07 -11.54914 -165.87506 37947 ft 482 kts 230°
2026-04-20 12:07 -11.59009 -165.92912 37943 ft 481 kts 230°
2026-04-20 12:08 -11.63099 -165.98312 37937 ft 481 kts 230°
2026-04-20 12:08 -11.67182 -166.03715 37939 ft 481 kts 230°
2026-04-20 12:09 -11.71264 -166.09120 37938 ft 481 kts 230°
2026-04-20 12:09 -11.75353 -166.14534 37943 ft 482 kts 231°
2026-04-20 12:10 -11.79441 -166.19949 37945 ft 482 kts 230°
2026-04-20 12:10 -11.83529 -166.25365 37943 ft 482 kts 230°
2026-04-20 12:11 -11.87621 -166.30792 37948 ft 482 kts 231°
2026-04-20 12:11 -11.91702 -166.36203 37965 ft 481 kts 231°
2026-04-20 12:12 -11.95777 -166.41613 37942 ft 480 kts 231°
2026-04-20 12:12 -11.99844 -166.47011 37942 ft 479 kts 231°
2026-04-20 12:13 -12.03890 -166.52387 37940 ft 478 kts 230°
2026-04-20 12:13 -12.07970 -166.57744 37932 ft 477 kts 230°
2026-04-20 12:14 -12.12058 -166.63093 37933 ft 477 kts 230°
2026-04-20 12:14 -12.16138 -166.68438 37934 ft 477 kts 230°
2026-04-20 12:15 -12.20215 -166.73786 37929 ft 477 kts 230°
2026-04-20 12:15 -12.24299 -166.79145 37937 ft 478 kts 230°
2026-04-20 12:16 -12.28385 -166.84508 37934 ft 478 kts 230°
2026-04-20 12:16 -12.32467 -166.89868 37936 ft 478 kts 230°
2026-04-20 12:17 -12.36555 -166.95241 37945 ft 479 kts 230°
2026-04-20 12:17 -12.40647 -167.00621 37917 ft 479 kts 230°
2026-04-20 12:18 -12.44707 -167.05966 37936 ft 478 kts 230°
2026-04-20 12:18 -12.48793 -167.11348 37950 ft 479 kts 230°
2026-04-20 12:19 -12.52915 -167.16777 37950 ft 480 kts 230°
2026-04-20 12:19 -12.56981 -167.22139 37952 ft 480 kts 230°
2026-04-20 12:20 -12.61077 -167.27542 37954 ft 480 kts 231°
2026-04-20 12:20 -12.65163 -167.32944 37950 ft 480 kts 230°
2026-04-20 12:21 -12.69251 -167.38341 37948 ft 479 kts 230°
2026-04-20 12:21 -12.73362 -167.43770 37943 ft 478 kts 230°
2026-04-20 12:22 -12.77439 -167.49159 37940 ft 478 kts 230°
2026-04-20 12:22 -12.81482 -167.54507 37947 ft 478 kts 230°
2026-04-20 12:23 -12.85551 -167.59899 37944 ft 478 kts 231°
2026-04-20 12:23 -12.89617 -167.65289 37941 ft 478 kts 231°
2026-04-20 12:24 -12.93680 -167.70677 37945 ft 478 kts 231°
2026-04-20 12:24 -12.97746 -167.76066 37940 ft 478 kts 231°
2026-04-20 12:25 -13.01809 -167.81457 37945 ft 478 kts 231°
2026-04-20 12:25 -13.05874 -167.86853 37945 ft 478 kts 231°
2026-04-20 12:26 -13.09938 -167.92252 37947 ft 478 kts 231°
2026-04-20 12:26 -13.13997 -167.97647 37944 ft 478 kts 231°
2026-04-20 12:27 -13.18054 -168.03046 37938 ft 478 kts 231°
2026-04-20 12:27 -13.22115 -168.08453 37950 ft 478 kts 231°
2026-04-20 12:28 -13.26177 -168.13856 37943 ft 478 kts 231°
2026-04-20 12:28 -13.30227 -168.19263 37945 ft 478 kts 231°
2026-04-20 12:29 -13.34282 -168.24668 37940 ft 478 kts 231°
2026-04-20 12:29 -13.38333 -168.30079 37946 ft 478 kts 231°
2026-04-20 12:30 -13.42374 -168.35470 37943 ft 477 kts 231°
2026-04-20 12:30 -13.46422 -168.40873 37948 ft 477 kts 231°
2026-04-20 12:31 -13.50468 -168.46284 37941 ft 477 kts 231°
2026-04-20 12:31 -13.54510 -168.51689 37942 ft 477 kts 231°
2026-04-20 12:32 -13.58551 -168.57099 37942 ft 477 kts 231°
2026-04-20 12:32 -13.62590 -168.62507 37940 ft 477 kts 231°
2026-04-20 12:33 -13.66627 -168.67919 37935 ft 477 kts 231°
2026-04-20 12:33 -13.70667 -168.73339 37951 ft 477 kts 231°
2026-04-20 12:34 -13.74706 -168.78760 37946 ft 477 kts 231°
2026-04-20 12:34 -13.78743 -168.84181 37941 ft 478 kts 231°
2026-04-20 12:35 -13.82778 -168.89597 37936 ft 478 kts 231°
2026-04-20 12:35 -13.86140 -168.94117 37948 ft 478 kts 231°
2026-04-20 12:36 -13.90180 -168.99555 37946 ft 479 kts 231°
2026-04-20 12:36 -13.94227 -169.05002 37953 ft 479 kts 231°
2026-04-20 12:37 -13.98271 -169.10451 37947 ft 479 kts 231°
2026-04-20 12:37 -14.02316 -169.15899 37952 ft 479 kts 231°
2026-04-20 12:38 -14.06357 -169.21349 37953 ft 478 kts 231°
2026-04-20 12:38 -14.10391 -169.26793 37939 ft 478 kts 231°
2026-04-20 12:39 -14.16440 -169.34965 37935 ft 478 kts 231°
2026-04-20 12:40 -14.20472 -169.40417 37937 ft 479 kts 231°
2026-04-20 12:40 -14.24506 -169.45880 37943 ft 479 kts 231°
2026-04-20 12:41 -14.28547 -169.51346 37948 ft 480 kts 231°
2026-04-20 12:41 -14.32588 -169.56813 37951 ft 480 kts 231°
2026-04-20 12:42 -14.36630 -169.62298 37947 ft 480 kts 231°
2026-04-20 12:42 -14.40671 -169.67779 37942 ft 480 kts 231°
2026-04-20 12:43 -14.44681 -169.73220 37938 ft 479 kts 231°
2026-04-20 12:43 -14.48713 -169.78696 37944 ft 479 kts 231°
2026-04-20 12:44 -14.52744 -169.84174 37933 ft 479 kts 231°
2026-04-20 12:44 -14.56769 -169.89647 37942 ft 479 kts 232°
2026-04-20 12:45 -14.60798 -169.95132 37936 ft 479 kts 231°
2026-04-20 12:45 -14.64824 -170.00614 37941 ft 479 kts 232°
2026-04-20 12:46 -14.68847 -170.06099 37939 ft 479 kts 232°
2026-04-20 12:46 -14.72872 -170.11588 37939 ft 479 kts 232°
2026-04-20 12:47 -14.76899 -170.17082 37943 ft 480 kts 232°
2026-04-20 12:47 -14.80928 -170.22580 37938 ft 480 kts 232°
2026-04-20 12:48 -14.84954 -170.28080 37949 ft 480 kts 232°
2026-04-20 12:48 -14.88980 -170.33585 37942 ft 479 kts 232°
2026-04-20 12:49 -14.93070 -170.39018 37945 ft 479 kts 230°
2026-04-20 12:49 -14.97283 -170.44345 37952 ft 478 kts 230°
2026-04-20 12:50 -15.01482 -170.49685 37941 ft 478 kts 230°
2026-04-20 12:50 -15.05662 -170.55036 37947 ft 478 kts 230°
2026-04-20 12:51 -15.09833 -170.60389 37942 ft 478 kts 230°
2026-04-20 12:51 -15.13963 -170.65683 37937 ft 478 kts 230°
2026-04-20 12:52 -15.18137 -170.71034 37944 ft 478 kts 230°
2026-04-20 12:52 -15.22306 -170.76392 37941 ft 478 kts 230°
2026-04-20 12:53 -15.26473 -170.81753 37944 ft 478 kts 230°
2026-04-20 12:53 -15.30643 -170.87118 37947 ft 478 kts 230°
2026-04-20 12:54 -15.34806 -170.92475 37938 ft 477 kts 230°
2026-04-20 12:54 -15.38968 -170.97838 37946 ft 477 kts 230°
2026-04-20 12:55 -15.43130 -171.03194 37937 ft 477 kts 230°
2026-04-20 12:55 -15.47285 -171.08560 37936 ft 477 kts 230°
2026-04-20 12:56 -15.51441 -171.13930 37939 ft 477 kts 230°
2026-04-20 12:56 -15.55599 -171.19302 37939 ft 478 kts 230°
2026-04-20 12:57 -15.59759 -171.24682 37943 ft 478 kts 230°
2026-04-20 12:57 -15.63919 -171.30062 37936 ft 478 kts 230°
2026-04-20 12:58 -15.68061 -171.35425 37938 ft 477 kts 230°
2026-04-20 12:58 -15.72210 -171.40800 37935 ft 477 kts 230°
2026-04-20 12:59 -15.76351 -171.46171 37929 ft 476 kts 230°
2026-04-20 12:59 -15.80490 -171.51542 37937 ft 476 kts 230°
2026-04-20 13:00 -15.84618 -171.56903 37932 ft 475 kts 230°
2026-04-20 13:00 -15.88742 -171.62266 37927 ft 475 kts 230°
2026-04-20 13:01 -15.92862 -171.67622 37931 ft 474 kts 230°
2026-04-20 13:01 -15.96976 -171.72973 37932 ft 474 kts 231°
2026-04-20 13:02 -16.01088 -171.78329 37934 ft 474 kts 231°
2026-04-20 13:02 -16.05196 -171.83681 37933 ft 474 kts 231°
2026-04-20 13:03 -16.09305 -171.89047 37931 ft 474 kts 231°
2026-04-20 13:03 -16.13414 -171.94408 37936 ft 474 kts 231°
2026-04-20 13:04 -16.17517 -171.99771 37931 ft 474 kts 231°
2026-04-20 13:04 -16.21623 -172.05136 37934 ft 474 kts 231°
2026-04-20 13:05 -16.25730 -172.10507 37934 ft 474 kts 231°
2026-04-20 13:05 -16.29833 -172.15878 37931 ft 474 kts 231°
2026-04-20 13:06 -16.33937 -172.21250 37934 ft 474 kts 231°
2026-04-20 13:06 -16.38033 -172.26622 37952 ft 474 kts 231°
2026-04-20 13:07 -16.42129 -172.31997 37958 ft 474 kts 231°
2026-04-20 13:07 -16.46224 -172.37375 37952 ft 473 kts 231°
2026-04-20 13:08 -16.50313 -172.42745 37956 ft 473 kts 231°
2026-04-20 13:08 -16.54395 -172.48109 37946 ft 472 kts 231°
2026-04-20 13:09 -16.58469 -172.53476 37949 ft 472 kts 231°
2026-04-20 13:09 -16.62534 -172.58834 37943 ft 471 kts 231°
2026-04-20 13:10 -16.66598 -172.64186 37965 ft 470 kts 231°
2026-04-20 13:10 -16.70655 -172.69532 37959 ft 470 kts 231°
2026-04-20 13:11 -16.74667 -172.74838 37949 ft 469 kts 231°
2026-04-20 13:11 -16.78712 -172.80180 37948 ft 468 kts 231°
2026-04-20 13:12 -16.82745 -172.85511 37947 ft 468 kts 231°
2026-04-20 13:12 -16.86771 -172.90838 37950 ft 468 kts 231°
2026-04-20 13:13 -16.90792 -172.96162 37944 ft 467 kts 232°
2026-04-20 13:13 -16.94814 -173.01493 37947 ft 468 kts 232°
2026-04-20 13:14 -16.98840 -173.06831 37957 ft 468 kts 232°
2026-04-20 13:14 -17.02853 -173.12156 37956 ft 468 kts 232°
2026-04-20 13:15 -17.06886 -173.17513 37976 ft 468 kts 232°
2026-04-20 13:15 -17.10912 -173.22862 37978 ft 468 kts 232°
2026-04-20 13:16 -17.14935 -173.28216 37982 ft 468 kts 232°
2026-04-20 13:16 -17.18954 -173.33565 37982 ft 467 kts 232°
2026-04-20 13:17 -17.22963 -173.38905 37968 ft 466 kts 232°
2026-04-20 13:17 -17.26963 -173.44243 37964 ft 466 kts 232°
2026-04-20 13:18 -17.30957 -173.49573 37950 ft 465 kts 232°
2026-04-20 13:18 -17.34949 -173.54899 37966 ft 465 kts 232°
2026-04-20 13:19 -17.38933 -173.60227 37962 ft 464 kts 232°
2026-04-20 13:19 -17.42903 -173.65538 37947 ft 464 kts 232°
2026-04-20 13:20 -17.46877 -173.70857 37947 ft 463 kts 232°
2026-04-20 13:20 -17.50843 -173.76171 37958 ft 463 kts 232°
2026-04-20 13:21 -17.54140 -173.80588 37956 ft 463 kts 232°
2026-04-20 13:21 -17.58103 -173.85906 37950 ft 463 kts 232°
2026-04-20 13:22 -17.62063 -173.91225 37950 ft 463 kts 232°
2026-04-20 13:22 -17.66021 -173.96546 37955 ft 463 kts 232°
2026-04-20 13:23 -17.69976 -174.01869 37972 ft 463 kts 232°
2026-04-20 13:23 -17.73919 -174.07175 37965 ft 463 kts 232°
2026-04-20 13:24 -17.77870 -174.12499 37960 ft 463 kts 232°
2026-04-20 13:24 -17.81824 -174.17826 37963 ft 463 kts 232°
2026-04-20 13:25 -17.85780 -174.23160 37978 ft 463 kts 232°
2026-04-20 13:25 -17.89730 -174.28497 37977 ft 463 kts 232°
2026-04-20 13:26 -17.93678 -174.33833 37977 ft 462 kts 232°
2026-04-20 13:26 -17.97623 -174.39169 37956 ft 463 kts 232°
2026-04-20 13:27 -18.01572 -174.44516 37950 ft 463 kts 232°
2026-04-20 13:27 -18.05518 -174.49859 37956 ft 462 kts 232°
2026-04-20 13:28 -18.09456 -174.55195 37953 ft 462 kts 232°
2026-04-20 13:28 -18.13390 -174.60531 37953 ft 461 kts 232°
2026-04-20 13:29 -18.17318 -174.65855 37949 ft 461 kts 232°
2026-04-20 13:29 -18.21539 -174.70926 37941 ft 461 kts 228°
2026-04-20 13:30 -18.25843 -174.75920 37946 ft 461 kts 229°
2026-04-20 13:30 -18.30100 -174.80952 37955 ft 461 kts 229°
2026-04-20 13:31 -18.34357 -174.86023 37962 ft 462 kts 229°
2026-04-20 13:31 -18.38610 -174.91086 37958 ft 462 kts 229°
2026-04-20 13:32 -18.42864 -174.96159 37953 ft 462 kts 229°
2026-04-20 13:32 -18.47119 -175.01236 37952 ft 462 kts 229°
2026-04-20 13:33 -18.51369 -175.06313 37956 ft 462 kts 230°
2026-04-20 13:33 -18.55611 -175.11383 37959 ft 461 kts 230°
2026-04-20 13:34 -18.59857 -175.16464 37954 ft 461 kts 230°
2026-04-20 13:34 -18.64092 -175.21531 37954 ft 461 kts 230°
2026-04-20 13:35 -18.68280 -175.26551 37963 ft 460 kts 230°
2026-04-20 13:35 -18.72514 -175.31627 37954 ft 461 kts 230°
2026-04-20 13:36 -18.76746 -175.36708 37954 ft 461 kts 230°
2026-04-20 13:36 -18.80979 -175.41785 37950 ft 460 kts 230°
2026-04-20 13:37 -18.85204 -175.46865 37968 ft 461 kts 230°
2026-04-20 13:37 -18.89433 -175.51949 37981 ft 461 kts 230°
2026-04-20 13:38 -18.93677 -175.57023 37976 ft 461 kts 227°
2026-04-20 13:38 -18.98245 -175.61790 37984 ft 462 kts 226°
2026-04-20 13:39 -19.02816 -175.66571 37991 ft 462 kts 226°
2026-04-20 13:39 -19.07387 -175.71352 37992 ft 462 kts 226°
2026-04-20 13:40 -19.11956 -175.76136 37997 ft 462 kts 226°
2026-04-20 13:40 -19.16518 -175.80921 37993 ft 462 kts 226°
2026-04-20 13:41 -19.21078 -175.85703 37988 ft 461 kts 226°
2026-04-20 13:41 -19.25632 -175.90489 37988 ft 461 kts 227°
2026-04-20 13:42 -19.30181 -175.95267 37985 ft 461 kts 227°
2026-04-20 13:42 -19.36992 -176.02436 37978 ft 460 kts 227°
2026-04-20 13:43 -19.41529 -176.07223 37977 ft 460 kts 227°
2026-04-20 13:43 -19.46044 -176.11973 37980 ft 461 kts 227°
2026-04-20 13:44 -19.50586 -176.16763 37989 ft 461 kts 227°
2026-04-20 13:44 -19.55123 -176.21556 37994 ft 461 kts 227°
2026-04-20 13:45 -19.59667 -176.26360 37990 ft 461 kts 227°
2026-04-20 13:45 -19.64208 -176.31164 37985 ft 461 kts 227°
2026-04-20 13:46 -19.68752 -176.35969 37952 ft 461 kts 227°
2026-04-20 13:46 -19.73289 -176.40775 37969 ft 461 kts 227°
2026-04-20 13:47 -19.77826 -176.45587 37956 ft 461 kts 227°
2026-04-20 13:47 -19.82359 -176.50399 37955 ft 461 kts 227°
2026-04-20 13:48 -19.86886 -176.55207 37969 ft 460 kts 227°
2026-04-20 13:48 -19.91409 -176.60018 37959 ft 460 kts 227°
2026-04-20 13:49 -19.95930 -176.64822 37961 ft 460 kts 227°
2026-04-20 13:49 -20.00448 -176.69637 37953 ft 460 kts 227°
2026-04-20 13:50 -20.04966 -176.74451 37950 ft 460 kts 228°
2026-04-20 13:50 -20.09486 -176.79271 37960 ft 461 kts 228°
2026-04-20 13:51 -20.14012 -176.84102 37966 ft 461 kts 228°
2026-04-20 13:51 -20.18537 -176.88941 37954 ft 461 kts 228°
2026-04-20 13:52 -20.23066 -176.93785 37968 ft 462 kts 228°
2026-04-20 13:52 -20.27599 -176.98641 37959 ft 462 kts 228°
2026-04-20 13:53 -20.32132 -177.03500 37956 ft 463 kts 228°
2026-04-20 13:53 -20.36669 -177.08361 37977 ft 463 kts 228°
2026-04-20 13:54 -20.41212 -177.13235 37982 ft 463 kts 228°
2026-04-20 13:54 -20.45731 -177.18092 37976 ft 463 kts 228°
2026-04-20 13:55 -20.50264 -177.22963 37979 ft 463 kts 228°
2026-04-20 13:55 -20.54787 -177.27830 37961 ft 463 kts 228°
2026-04-20 13:56 -20.59321 -177.32717 37978 ft 463 kts 228°
2026-04-20 13:56 -20.63858 -177.37603 37963 ft 463 kts 229°
2026-04-20 13:57 -20.68388 -177.42493 37965 ft 463 kts 229°
2026-04-20 13:57 -20.72923 -177.47392 37977 ft 464 kts 229°
2026-04-20 13:58 -20.77454 -177.52291 37980 ft 463 kts 229°
2026-04-20 13:58 -20.81987 -177.57194 37959 ft 464 kts 229°
2026-04-20 13:59 -20.86518 -177.62100 37977 ft 463 kts 229°
2026-04-20 13:59 -20.91042 -177.67002 37982 ft 463 kts 229°
2026-04-20 14:00 -20.95563 -177.71909 37978 ft 463 kts 229°
2026-04-20 14:00 -21.00065 -177.76799 37963 ft 462 kts 229°
2026-04-20 14:01 -21.04575 -177.81698 37975 ft 462 kts 229°
2026-04-20 14:01 -21.09078 -177.86598 37965 ft 461 kts 229°
2026-04-20 14:02 -21.13578 -177.91500 37968 ft 461 kts 229°
2026-04-20 14:02 -21.18074 -177.96400 37970 ft 461 kts 229°
2026-04-20 14:03 -21.22561 -178.01296 37953 ft 461 kts 230°
2026-04-20 14:03 -21.27048 -178.06196 37968 ft 460 kts 230°
2026-04-20 14:04 -21.31531 -178.11089 37959 ft 462 kts 230°
2026-04-20 14:04 -21.33783 -178.13555 38293 ft 463 kts 230°
2026-04-20 14:04 -21.36037 -178.16025 38698 ft 462 kts 230°
2026-04-20 14:05 -21.38284 -178.18486 39150 ft 461 kts 230°
2026-04-20 14:05 -21.40524 -178.20938 39561 ft 460 kts 230°
2026-04-20 14:05 -21.42005 -178.22561 39799 ft 460 kts 230°
2026-04-20 14:05 -21.44252 -178.25025 39952 ft 465 kts 230°
2026-04-20 14:06 -21.48710 -178.29912 39959 ft 454 kts 230°
2026-04-20 14:06 -21.53139 -178.34776 39966 ft 457 kts 230°
2026-04-20 14:07 -21.57581 -178.39653 39962 ft 456 kts 230°
2026-04-20 14:07 -21.62016 -178.44522 39966 ft 456 kts 230°
2026-04-20 14:08 -21.66456 -178.49397 39956 ft 456 kts 230°
2026-04-20 14:08 -21.70889 -178.54266 39950 ft 455 kts 230°
2026-04-20 14:09 -21.75318 -178.59141 39955 ft 456 kts 230°
2026-04-20 14:09 -21.79743 -178.64019 39955 ft 456 kts 230°
2026-04-20 14:10 -21.84171 -178.68901 39962 ft 456 kts 230°
2026-04-20 14:10 -21.88598 -178.73790 39951 ft 455 kts 230°
2026-04-20 14:11 -21.93025 -178.78680 39943 ft 456 kts 230°
2026-04-20 14:11 -21.97454 -178.83577 39945 ft 456 kts 230°
2026-04-20 14:12 -22.01878 -178.88473 39953 ft 456 kts 230°
2026-04-20 14:12 -22.06290 -178.93366 39958 ft 454 kts 231°
2026-04-20 14:13 -22.10688 -178.98244 39957 ft 453 kts 231°
2026-04-20 14:13 -22.15084 -179.03119 39948 ft 452 kts 231°
2026-04-20 14:14 -22.19454 -179.07975 39937 ft 451 kts 231°
2026-04-20 14:14 -22.23820 -179.12831 39937 ft 450 kts 231°
2026-04-20 14:15 -22.28146 -179.17649 39933 ft 449 kts 231°
2026-04-20 14:15 -22.32495 -179.22492 39930 ft 450 kts 231°
2026-04-20 14:16 -22.36848 -179.27348 39936 ft 449 kts 231°
2026-04-20 14:16 -22.41193 -179.32200 39936 ft 449 kts 231°
2026-04-20 14:17 -22.45542 -179.37056 39935 ft 449 kts 231°
2026-04-20 14:17 -22.49889 -179.41919 39937 ft 450 kts 231°
2026-04-20 14:18 -22.54237 -179.46789 39941 ft 450 kts 231°
2026-04-20 14:18 -22.58586 -179.51663 39943 ft 450 kts 231°
2026-04-20 14:19 -22.62934 -179.56542 39943 ft 450 kts 231°
2026-04-20 14:19 -22.67282 -179.61427 39946 ft 451 kts 231°
2026-04-20 14:20 -22.71635 -179.66322 39950 ft 451 kts 231°
2026-04-20 14:20 -22.75986 -179.71216 39952 ft 451 kts 231°
2026-04-20 14:21 -22.80335 -179.76111 39950 ft 450 kts 231°
2026-04-20 14:21 -22.84671 -179.81001 39946 ft 450 kts 231°
2026-04-20 14:22 -22.89000 -179.85886 39949 ft 449 kts 232°
2026-04-20 14:22 -22.93326 -179.90775 39947 ft 449 kts 232°
2026-04-20 14:23 -22.97645 -179.95662 39944 ft 448 kts 232°
2026-04-20 14:23 -23.02273 179.99746 39943 ft 455 kts 224°
2026-04-20 14:24 -23.07295 179.95553 39894 ft 455 kts 224°
2026-04-20 14:24 -23.12377 179.91253 39879 ft 471 kts 224°
2026-04-20 14:25 -23.17644 179.86800 39879 ft 488 kts 224°
2026-04-20 14:25 -23.23048 179.82232 39878 ft 503 kts 224°
2026-04-20 14:26 -23.25868 179.79848 40010 ft 507 kts 224°
2026-04-20 14:26 -23.28574 179.77570 41004 ft 492 kts 224°
2026-04-20 14:26 -23.31257 179.75323 41770 ft 483 kts 224°
2026-04-20 14:26 -23.33954 179.73071 42259 ft 480 kts 224°
2026-04-20 14:27 -23.36601 179.70862 42657 ft 479 kts 224°
2026-04-20 14:27 -23.39245 179.68657 42939 ft 479 kts 224°
2026-04-20 14:27 -23.41892 179.66447 43236 ft 479 kts 224°
2026-04-20 14:27 -23.44535 179.64242 43530 ft 479 kts 224°
2026-04-20 14:28 -23.47178 179.62035 43796 ft 479 kts 224°
2026-04-20 14:28 -23.49828 179.59822 44064 ft 479 kts 224°
2026-04-20 14:28 -23.52464 179.57620 44344 ft 479 kts 224°
2026-04-20 14:28 -23.55116 179.55404 44574 ft 480 kts 224°
2026-04-20 14:29 -23.57765 179.53189 44774 ft 481 kts 224°
2026-04-20 14:29 -23.60417 179.50970 45003 ft 481 kts 224°
2026-04-20 14:29 -23.63075 179.48746 45226 ft 481 kts 224°
2026-04-20 14:29 -23.65732 179.46520 45418 ft 482 kts 224°
2026-04-20 14:30 -23.68393 179.44290 45618 ft 483 kts 224°
2026-04-20 14:30 -23.71056 179.42058 45835 ft 483 kts 224°
2026-04-20 14:30 -23.73686 179.39852 46010 ft 484 kts 224°
2026-04-20 14:30 -23.76356 179.37611 46186 ft 484 kts 224°
2026-04-20 14:31 -23.79025 179.35370 46398 ft 484 kts 224°
2026-04-20 14:31 -23.81700 179.33124 46557 ft 485 kts 223°
2026-04-20 14:31 -23.84378 179.30873 46732 ft 486 kts 223°
2026-04-20 14:31 -23.87053 179.28624 46919 ft 486 kts 223°
2026-04-20 14:32 -23.89734 179.26369 47069 ft 486 kts 223°
2026-04-20 14:32 -23.92415 179.24114 47231 ft 487 kts 223°
2026-04-20 14:32 -23.95097 179.21856 47391 ft 487 kts 223°
2026-04-20 14:32 -23.97784 179.19594 47534 ft 488 kts 223°
2026-04-20 14:33 -24.00473 179.17328 47679 ft 488 kts 223°
2026-04-20 14:33 -24.03164 179.15061 47807 ft 489 kts 223°
2026-04-20 14:33 -24.05858 179.12789 47965 ft 489 kts 223°
2026-04-20 14:33 -24.08550 179.10519 48111 ft 489 kts 223°
2026-04-20 14:34 -24.11246 179.08244 48238 ft 490 kts 223°
2026-04-20 14:34 -24.13946 179.05962 48343 ft 490 kts 223°
2026-04-20 14:34 -24.16644 179.03682 48455 ft 491 kts 223°
2026-04-20 14:34 -24.19349 179.01394 48586 ft 491 kts 223°
2026-04-20 14:35 -24.22055 178.99102 48691 ft 492 kts 223°
2026-04-20 14:35 -24.24761 178.96809 48812 ft 492 kts 223°
2026-04-20 14:35 -24.27469 178.94512 48927 ft 492 kts 223°
2026-04-20 14:35 -24.30178 178.92213 49038 ft 493 kts 223°
2026-04-20 14:36 -24.32886 178.89915 49144 ft 493 kts 223°
2026-04-20 14:36 -24.35595 178.87613 49263 ft 493 kts 223°
2026-04-20 14:36 -24.38308 178.85306 49369 ft 493 kts 223°
2026-04-20 14:36 -24.40978 178.83034 49467 ft 493 kts 223°
2026-04-20 14:37 -24.43687 178.80728 49571 ft 493 kts 223°
2026-04-20 14:37 -24.46432 178.78390 49673 ft 493 kts 223°
2026-04-20 14:37 -24.51809 178.73805 49863 ft 492 kts 223°
2026-04-20 14:38 -24.57212 178.69194 50050 ft 492 kts 223°
2026-04-20 14:38 -24.62615 178.64578 50217 ft 491 kts 222°
2026-04-20 14:39 -24.68004 178.59970 50375 ft 490 kts 222°
2026-04-20 14:39 -24.73380 178.55369 50518 ft 489 kts 222°
2026-04-20 14:40 -24.78742 178.50776 50660 ft 488 kts 222°
2026-04-20 14:40 -24.84092 178.46190 50783 ft 487 kts 222°
2026-04-20 14:41 -24.89428 178.41613 50895 ft 485 kts 222°
2026-04-20 14:41 -24.94743 178.37050 51000 ft 484 kts 222°
2026-04-20 14:42 -25.00042 178.32499 51078 ft 482 kts 222°
2026-04-20 14:42 -25.05308 178.27973 51148 ft 480 kts 222°
2026-04-20 14:43 -25.10564 178.23453 51209 ft 478 kts 222°
2026-04-20 14:43 -25.15796 178.18952 51256 ft 476 kts 222°
2026-04-20 14:44 -25.21009 178.14465 51284 ft 474 kts 222°
2026-04-20 14:44 -25.26192 178.10003 51301 ft 472 kts 222°
2026-04-20 14:45 -25.31353 178.05557 51312 ft 469 kts 222°
2026-04-20 14:45 -25.36488 178.01133 51307 ft 467 kts 222°
2026-04-20 14:46 -25.41568 177.96762 51247 ft 453 kts 222°
2026-04-20 14:46 -25.44024 177.94658 51160 ft 441 kts 222°
2026-04-20 14:46 -25.46424 177.92610 51034 ft 430 kts 223°
2026-04-20 14:47 -25.48766 177.90622 50818 ft 420 kts 223°
2026-04-20 14:47 -25.51075 177.88666 50414 ft 416 kts 223°
2026-04-20 14:47 -25.53365 177.86730 49930 ft 413 kts 224°
2026-04-20 14:48 -25.57875 177.82930 49216 ft 401 kts 225°
2026-04-20 14:48 -25.60083 177.81081 48955 ft 393 kts 225°
2026-04-20 14:48 -25.62251 177.79275 48648 ft 387 kts 225°
2026-04-20 14:48 -25.64396 177.77495 48236 ft 383 kts 225°
2026-04-20 14:49 -25.66522 177.75735 47802 ft 380 kts 226°
2026-04-20 14:49 -25.68602 177.74017 47408 ft 376 kts 226°
2026-04-20 14:49 -25.70714 177.72281 47063 ft 370 kts 226°
2026-04-20 14:49 -25.72769 177.70601 46728 ft 365 kts 227°
2026-04-20 14:50 -25.74806 177.68943 46378 ft 360 kts 227°
2026-04-20 14:50 -25.76819 177.67313 45994 ft 356 kts 227°
2026-04-20 14:50 -25.78811 177.65706 45609 ft 353 kts 228°
2026-04-20 14:50 -25.80785 177.64122 45266 ft 348 kts 228°
2026-04-20 14:51 -25.82712 177.62586 44932 ft 343 kts 229°
2026-04-20 14:51 -25.84016 177.61551 44709 ft 340 kts 229°
2026-04-20 14:51 -25.86550 177.59552 44238 ft 334 kts 229°
2026-04-20 14:51 -25.88439 177.58073 43896 ft 330 kts 230°
2026-04-20 14:52 -25.90307 177.56622 43557 ft 326 kts 230°
2026-04-20 14:52 -25.92150 177.55196 43190 ft 322 kts 230°
2026-04-20 14:52 -25.93990 177.53781 42828 ft 319 kts 229°
2026-04-20 14:52 -25.95806 177.52393 42491 ft 315 kts 229°
2026-04-20 14:53 -25.97024 177.51467 42269 ft 312 kts 229°
2026-04-20 14:53 -25.98809 177.50117 41926 ft 309 kts 229°
2026-04-20 14:53 -26.00578 177.48787 41566 ft 306 kts 230°
2026-04-20 14:53 -26.02317 177.47347 40454 ft 317 kts 240°
2026-04-20 14:54 -26.03570 177.45352 39679 ft 318 kts 258°
2026-04-20 14:54 -26.04417 177.40595 39900 ft 317 kts 264°
2026-04-20 14:54 -26.05156 177.38211 39899 ft 337 kts 251°
2026-04-20 14:55 -26.06511 177.35988 39900 ft 360 kts 240°
2026-04-20 14:55 -26.08281 177.33975 39899 ft 377 kts 234°
2026-04-20 14:55 -26.10308 177.32043 39898 ft 390 kts 231°
2026-04-20 14:56 -26.14678 177.28170 39898 ft 407 kts 230°
2026-04-20 14:56 -26.19159 177.24191 39898 ft 422 kts 230°
2026-04-20 14:57 -26.23820 177.20003 39898 ft 439 kts 230°
2026-04-20 14:57 -26.28575 177.15738 39898 ft 435 kts 230°
2026-04-20 14:58 -26.33286 177.11495 39897 ft 436 kts 230°
2026-04-20 14:58 -26.38031 177.07212 39897 ft 436 kts 230°
2026-04-20 14:59 -26.42740 177.02954 39899 ft 436 kts 230°
2026-04-20 14:59 -26.47446 176.98694 39899 ft 435 kts 230°
2026-04-20 15:00 -26.52111 176.94467 39892 ft 436 kts 231°
2026-04-20 15:00 -26.56856 176.90161 39897 ft 436 kts 231°
2026-04-20 15:01 -26.61527 176.85923 39895 ft 435 kts 231°
2026-04-20 15:01 -26.66225 176.81651 39889 ft 435 kts 231°
2026-04-20 15:02 -26.70919 176.77387 39884 ft 435 kts 231°
2026-04-20 15:02 -26.75606 176.73116 39887 ft 434 kts 231°
2026-04-20 15:03 -26.80291 176.68841 39889 ft 435 kts 231°
2026-04-20 15:03 -26.84972 176.64568 39889 ft 434 kts 231°
2026-04-20 15:04 -26.89643 176.60297 39889 ft 433 kts 231°
2026-04-20 15:04 -26.94311 176.56024 39887 ft 433 kts 231°
2026-04-20 15:05 -26.98973 176.51755 39886 ft 432 kts 231°
2026-04-20 15:05 -27.03622 176.47493 39885 ft 432 kts 232°
2026-04-20 15:06 -27.08269 176.43230 39883 ft 431 kts 232°
2026-04-20 15:06 -27.12900 176.38970 39888 ft 430 kts 232°
2026-04-20 15:07 -27.17531 176.34711 39880 ft 431 kts 232°
2026-04-20 15:07 -27.22166 176.30443 39883 ft 430 kts 232°
2026-04-20 15:08 -27.26793 176.26178 39886 ft 430 kts 232°
2026-04-20 15:08 -27.31428 176.21916 39885 ft 433 kts 231°
2026-04-20 15:09 -27.36409 176.17980 39889 ft 438 kts 228°
2026-04-20 15:09 -27.41427 176.14083 39889 ft 438 kts 228°
2026-04-20 15:10 -27.46436 176.10177 39893 ft 438 kts 229°
2026-04-20 15:10 -27.51435 176.06277 39893 ft 437 kts 229°
2026-04-20 15:11 -27.56433 176.02371 39893 ft 437 kts 229°
2026-04-20 15:11 -27.61435 175.98455 39860 ft 438 kts 229°
2026-04-20 15:12 -27.66445 175.94533 39866 ft 439 kts 229°
2026-04-20 15:12 -27.71469 175.90595 39877 ft 440 kts 229°
2026-04-20 15:13 -27.76495 175.86654 39882 ft 440 kts 229°
2026-04-20 15:13 -27.81522 175.82706 39883 ft 440 kts 229°
2026-04-20 15:14 -27.86548 175.78749 39884 ft 440 kts 229°
2026-04-20 15:14 -27.91568 175.74793 39881 ft 440 kts 229°
2026-04-20 15:15 -27.96589 175.70837 39881 ft 440 kts 229°
2026-04-20 15:15 -28.01602 175.66887 39878 ft 439 kts 229°
2026-04-20 15:16 -28.06607 175.62932 39876 ft 438 kts 229°
2026-04-20 15:16 -28.11605 175.58975 39877 ft 438 kts 229°
2026-04-20 15:17 -28.16601 175.55015 39867 ft 439 kts 229°
2026-04-20 15:17 -28.21605 175.51047 39870 ft 439 kts 229°
2026-04-20 15:18 -28.26614 175.47071 39873 ft 440 kts 229°
2026-04-20 15:18 -28.31628 175.43087 39878 ft 440 kts 229°
2026-04-20 15:19 -28.36646 175.39093 39881 ft 441 kts 229°
2026-04-20 15:19 -28.41639 175.35115 39881 ft 442 kts 230°
2026-04-20 15:20 -28.46669 175.31103 39883 ft 441 kts 230°
2026-04-20 15:20 -28.51689 175.27094 39870 ft 442 kts 230°
2026-04-20 15:21 -28.56725 175.23067 39874 ft 442 kts 230°
2026-04-20 15:21 -28.61759 175.19037 39876 ft 443 kts 230°
2026-04-20 15:22 -28.66792 175.15006 39879 ft 442 kts 230°
2026-04-20 15:22 -28.71819 175.10978 39874 ft 441 kts 230°
2026-04-20 15:23 -28.76831 175.06943 39870 ft 441 kts 230°
2026-04-20 15:23 -28.81847 175.02910 39867 ft 441 kts 230°
2026-04-20 15:24 -28.86854 174.98880 39880 ft 440 kts 230°
2026-04-20 15:24 -28.91876 174.94830 39858 ft 439 kts 230°
2026-04-20 15:25 -28.96837 174.90825 39861 ft 440 kts 230°
2026-04-20 15:25 -29.01833 174.86786 39863 ft 440 kts 230°
2026-04-20 15:26 -29.06829 174.82745 39867 ft 440 kts 230°
2026-04-20 15:26 -29.11832 174.78691 39866 ft 444 kts 230°
2026-04-20 15:27 -29.16967 174.74504 39817 ft 463 kts 230°
2026-04-20 15:27 -29.22312 174.70155 39836 ft 480 kts 229°
2026-04-20 15:28 -29.27848 174.65657 39834 ft 491 kts 229°
2026-04-20 15:28 -29.30588 174.63456 39827 ft 471 kts 229°
2026-04-20 15:28 -29.33218 174.61347 39827 ft 452 kts 229°
2026-04-20 15:28 -29.35738 174.59312 39827 ft 436 kts 230°
2026-04-20 15:29 -29.38194 174.57302 39834 ft 435 kts 231°
2026-04-20 15:29 -29.43169 174.53193 39828 ft 443 kts 230°
2026-04-20 15:30 -29.48210 174.49062 39832 ft 447 kts 230°
2026-04-20 15:30 -29.53266 174.44931 39834 ft 446 kts 230°
2026-04-20 15:31 -29.58318 174.40793 39835 ft 446 kts 230°
2026-04-20 15:31 -29.63329 174.36599 39842 ft 442 kts 233°
2026-04-20 15:32 -29.67904 174.31999 39839 ft 436 kts 235°
2026-04-20 15:32 -29.72454 174.27362 39839 ft 437 kts 235°
2026-04-20 15:33 -29.77016 174.22726 39849 ft 438 kts 235°
2026-04-20 15:33 -29.81565 174.18084 39843 ft 437 kts 235°
2026-04-20 15:34 -29.86104 174.13440 39830 ft 437 kts 235°
2026-04-20 15:34 -29.90645 174.08780 39837 ft 436 kts 235°
2026-04-20 15:35 -29.95174 174.04127 39835 ft 436 kts 235°
2026-04-20 15:35 -29.98936 174.00266 39830 ft 435 kts 235°
2026-04-20 15:36 -30.03458 173.95617 39828 ft 435 kts 235°
2026-04-20 15:36 -30.07980 173.90965 39832 ft 435 kts 235°
2026-04-20 15:37 -30.12494 173.86313 39830 ft 435 kts 236°
2026-04-20 15:37 -30.17019 173.81642 39822 ft 436 kts 235°
2026-04-20 15:38 -30.21543 173.76967 39821 ft 436 kts 235°
2026-04-20 15:38 -30.26062 173.72289 39830 ft 436 kts 235°
2026-04-20 15:39 -30.30591 173.67598 39829 ft 437 kts 235°
2026-04-20 15:39 -30.35125 173.62893 39820 ft 438 kts 235°
2026-04-20 15:40 -30.39655 173.58187 39829 ft 438 kts 235°
2026-04-20 15:40 -30.44185 173.53473 39824 ft 438 kts 235°
2026-04-20 15:41 -30.48724 173.48745 39806 ft 439 kts 235°
2026-04-20 15:41 -30.53268 173.44007 39812 ft 440 kts 235°
2026-04-20 15:42 -30.57826 173.39249 39814 ft 441 kts 235°
2026-04-20 15:42 -30.62382 173.34483 39813 ft 441 kts 235°
2026-04-20 15:43 -30.66945 173.29706 39808 ft 442 kts 235°
2026-04-20 15:43 -30.71490 173.24941 39822 ft 443 kts 235°
2026-04-20 15:44 -30.76059 173.20141 39819 ft 443 kts 235°
2026-04-20 15:44 -30.80641 173.15325 39822 ft 444 kts 235°
2026-04-20 15:45 -30.85221 173.10502 39820 ft 444 kts 235°
2026-04-20 15:45 -30.89801 173.05675 39811 ft 444 kts 235°
2026-04-20 15:46 -30.94376 173.00848 39806 ft 444 kts 235°
2026-04-20 15:46 -30.98947 172.96012 39803 ft 443 kts 235°
2026-04-20 15:47 -31.03514 172.91176 39801 ft 444 kts 234°
2026-04-20 15:47 -31.08085 172.86333 39802 ft 444 kts 235°
2026-04-20 15:48 -31.12658 172.81481 39802 ft 445 kts 234°
2026-04-20 15:48 -31.17239 172.76617 39799 ft 445 kts 234°
2026-04-20 15:49 -31.21814 172.71750 39799 ft 445 kts 234°
2026-04-20 15:49 -31.26391 172.66871 39797 ft 445 kts 234°
2026-04-20 15:50 -31.30935 172.62017 39794 ft 447 kts 234°
2026-04-20 15:50 -31.35546 172.57090 39797 ft 449 kts 234°
2026-04-20 15:51 -31.40158 172.52155 39802 ft 450 kts 234°
2026-04-20 15:51 -31.44748 172.47238 39804 ft 451 kts 234°
2026-04-20 15:52 -31.49375 172.42275 39806 ft 452 kts 234°
2026-04-20 15:52 -31.54009 172.37293 39807 ft 452 kts 234°
2026-04-20 15:53 -31.60965 172.29805 39807 ft 453 kts 234°
2026-04-20 15:53 -31.65604 172.24799 39805 ft 453 kts 234°
2026-04-20 15:54 -31.70252 172.19783 39796 ft 454 kts 234°
2026-04-20 15:54 -31.74906 172.14750 39799 ft 455 kts 234°
2026-04-20 15:55 -31.79565 172.09706 39799 ft 456 kts 233°
2026-04-20 15:55 -31.84233 172.04643 39796 ft 457 kts 233°
2026-04-20 15:56 -31.88898 171.99576 39798 ft 457 kts 233°
2026-04-20 15:56 -31.93567 171.94496 39800 ft 457 kts 233°
2026-04-20 15:57 -31.98233 171.89417 39799 ft 457 kts 233°
2026-04-20 15:57 -32.02901 171.84325 39802 ft 457 kts 233°
2026-04-20 15:58 -32.07533 171.79265 39797 ft 457 kts 233°
2026-04-20 15:58 -32.12196 171.74163 39800 ft 458 kts 233°
2026-04-20 15:59 -32.16855 171.69057 39798 ft 457 kts 233°
2026-04-20 15:59 -32.21516 171.63945 39792 ft 457 kts 233°
2026-04-20 16:00 -32.26173 171.58826 39789 ft 457 kts 233°
2026-04-20 16:00 -32.30834 171.53694 39790 ft 458 kts 233°
2026-04-20 16:01 -32.35493 171.48561 39799 ft 458 kts 233°
2026-04-20 16:01 -32.40153 171.43420 39791 ft 458 kts 233°
2026-04-20 16:02 -32.44813 171.38269 39791 ft 459 kts 233°
2026-04-20 16:02 -32.49478 171.33099 39791 ft 460 kts 233°
2026-04-20 16:03 -32.54151 171.27923 39794 ft 461 kts 232°
2026-04-20 16:03 -32.58836 171.22723 39796 ft 461 kts 232°
2026-04-20 16:04 -32.63519 171.17513 39800 ft 462 kts 232°
2026-04-20 16:04 -32.68177 171.12328 39803 ft 462 kts 232°
2026-04-20 16:05 -32.72867 171.07098 39803 ft 463 kts 232°
2026-04-20 16:05 -32.77549 171.01869 39801 ft 463 kts 232°
2026-04-20 16:06 -32.82241 170.96620 39797 ft 463 kts 232°
2026-04-20 16:06 -32.86921 170.91375 39796 ft 464 kts 232°
2026-04-20 16:07 -32.91619 170.86110 39800 ft 464 kts 232°
2026-04-20 16:07 -32.96311 170.80841 39801 ft 464 kts 232°
2026-04-20 16:08 -33.00651 170.75262 39797 ft 455 kts 239°
2026-04-20 16:08 -33.04354 170.69211 39791 ft 451 kts 242°
2026-04-20 16:09 -33.07957 170.63085 39790 ft 452 kts 242°
2026-04-20 16:09 -33.11568 170.56945 39790 ft 452 kts 242°
2026-04-20 16:10 -33.15173 170.50792 39790 ft 453 kts 242°
2026-04-20 16:10 -33.18777 170.44622 39789 ft 453 kts 242°
2026-04-20 16:11 -33.22380 170.38439 39790 ft 454 kts 242°
2026-04-20 16:11 -33.25983 170.32243 39786 ft 455 kts 242°
2026-04-20 16:12 -33.29594 170.26025 39789 ft 456 kts 242°
2026-04-20 16:12 -33.33210 170.19790 39793 ft 457 kts 242°
2026-04-20 16:13 -33.36810 170.13567 39800 ft 458 kts 241°
2026-04-20 16:13 -33.40466 170.07239 39801 ft 460 kts 241°
2026-04-20 16:14 -33.44080 170.00966 39806 ft 461 kts 241°
2026-04-20 16:14 -33.47746 169.94601 39802 ft 462 kts 241°
2026-04-20 16:15 -33.51366 169.88309 39805 ft 462 kts 241°
2026-04-20 16:15 -33.55006 169.81965 39803 ft 462 kts 241°
2026-04-20 16:16 -33.58647 169.75610 39803 ft 462 kts 241°
2026-04-20 16:16 -33.62282 169.69254 39815 ft 462 kts 241°
2026-04-20 16:17 -33.65909 169.62899 39808 ft 461 kts 241°
2026-04-20 16:17 -33.69533 169.56539 39811 ft 461 kts 241°
2026-04-20 16:18 -33.73143 169.50189 39804 ft 460 kts 241°
2026-04-20 16:18 -33.76751 169.43838 39803 ft 460 kts 241°
2026-04-20 16:19 -33.80350 169.37489 39801 ft 459 kts 241°
2026-04-20 16:19 -33.83942 169.31145 39796 ft 459 kts 241°
2026-04-20 16:20 -33.87531 169.24791 39797 ft 459 kts 241°
2026-04-20 16:20 -33.91111 169.18441 39802 ft 459 kts 241°
2026-04-20 16:21 -33.94690 169.12080 39802 ft 460 kts 241°
2026-04-20 16:21 -33.98280 169.05693 39808 ft 460 kts 241°
2026-04-20 16:22 -34.01850 168.99334 39793 ft 460 kts 240°
2026-04-20 16:22 -34.04834 168.94005 39776 ft 462 kts 240°
2026-04-20 16:23 -34.08427 168.87569 39795 ft 463 kts 240°
2026-04-20 16:23 -34.12034 168.81108 39809 ft 465 kts 240°
2026-04-20 16:24 -34.15647 168.74623 39825 ft 466 kts 240°
2026-04-20 16:24 -34.19266 168.68116 39806 ft 467 kts 240°
2026-04-20 16:25 -34.22889 168.61590 39826 ft 468 kts 240°
2026-04-20 16:25 -34.26506 168.55066 39828 ft 468 kts 240°
2026-04-20 16:26 -34.30119 168.48526 39830 ft 467 kts 240°
2026-04-20 16:26 -34.33729 168.41992 39813 ft 466 kts 240°
2026-04-20 16:27 -34.37321 168.35473 39809 ft 465 kts 240°
2026-04-20 16:27 -34.40910 168.28952 39808 ft 465 kts 240°
2026-04-20 16:28 -34.44490 168.22434 39807 ft 465 kts 240°
2026-04-20 16:28 -34.48064 168.15914 39801 ft 464 kts 240°
2026-04-20 16:29 -34.51628 168.09396 39795 ft 464 kts 240°
2026-04-20 16:29 -34.55169 168.02916 39795 ft 464 kts 240°
2026-04-20 16:30 -34.58727 167.96386 39790 ft 464 kts 239°
2026-04-20 16:30 -34.62285 167.89845 39802 ft 465 kts 239°
2026-04-20 16:31 -34.65846 167.83283 39844 ft 466 kts 239°
2026-04-20 16:31 -34.69415 167.76706 39855 ft 467 kts 239°
2026-04-20 16:32 -34.72981 167.70106 39858 ft 468 kts 239°
2026-04-20 16:32 -34.76556 167.63488 39862 ft 469 kts 239°
2026-04-20 16:33 -34.80140 167.56842 39867 ft 470 kts 239°
2026-04-20 16:33 -34.83722 167.50184 39872 ft 471 kts 239°
2026-04-20 16:34 -34.87310 167.43508 39871 ft 471 kts 239°
2026-04-20 16:34 -34.90887 167.36833 39877 ft 472 kts 239°
2026-04-20 16:35 -34.94470 167.30134 39877 ft 472 kts 239°
2026-04-20 16:35 -34.98053 167.23423 39877 ft 472 kts 239°
2026-04-20 16:36 -35.01623 167.16723 39871 ft 472 kts 239°
2026-04-20 16:36 -35.05203 167.10003 39866 ft 472 kts 239°
2026-04-20 16:37 -35.08776 167.03271 39869 ft 473 kts 239°
2026-04-20 16:37 -35.12346 166.96530 39876 ft 473 kts 239°
2026-04-20 16:38 -35.15892 166.89823 39883 ft 474 kts 239°
2026-04-20 16:38 -35.19464 166.83058 39881 ft 474 kts 238°
2026-04-20 16:39 -35.23056 166.76238 39876 ft 474 kts 238°
2026-04-20 16:39 -35.26623 166.69457 39882 ft 474 kts 238°
2026-04-20 16:40 -35.30177 166.62687 39887 ft 474 kts 238°
2026-04-20 16:40 -35.33738 166.55890 39882 ft 474 kts 238°
2026-04-20 16:41 -35.37295 166.49085 39880 ft 475 kts 238°
2026-04-20 16:41 -35.40831 166.42301 39880 ft 475 kts 238°
2026-04-20 16:42 -35.44390 166.35469 39887 ft 476 kts 238°
2026-04-20 16:42 -35.47950 166.28629 39886 ft 476 kts 238°
2026-04-20 16:43 -35.51509 166.21779 39890 ft 476 kts 238°
2026-04-20 16:43 -35.54929 166.14812 39888 ft 477 kts 242°
2026-04-20 16:44 -35.57725 166.07432 39890 ft 477 kts 246°
2026-04-20 16:44 -35.60422 165.99991 39896 ft 477 kts 246°
2026-04-20 16:45 -35.63132 165.92540 39900 ft 478 kts 246°
2026-04-20 16:45 -35.65826 165.85068 39904 ft 478 kts 246°
2026-04-20 16:46 -35.68512 165.77595 39905 ft 478 kts 246°
2026-04-20 16:46 -35.71194 165.70108 39909 ft 478 kts 246°
2026-04-20 16:47 -35.73871 165.62621 39910 ft 478 kts 246°
2026-04-20 16:47 -35.76530 165.55168 39910 ft 478 kts 246°
2026-04-20 16:48 -35.79191 165.47692 39908 ft 477 kts 246°
2026-04-20 16:48 -35.81848 165.40205 39907 ft 477 kts 246°
2026-04-20 16:49 -35.84505 165.32711 39911 ft 477 kts 246°
2026-04-20 16:49 -35.87131 165.25278 39911 ft 477 kts 246°
2026-04-20 16:50 -35.89766 165.17791 39923 ft 477 kts 246°
2026-04-20 16:50 -35.92407 165.10279 39922 ft 477 kts 246°
2026-04-20 16:51 -35.95042 165.02765 39924 ft 477 kts 246°
2026-04-20 16:51 -35.97670 164.95248 39990 ft 476 kts 246°
2026-04-20 16:52 -36.00053 164.87619 40031 ft 476 kts 249°
2026-04-20 16:52 -36.02381 164.79941 40019 ft 479 kts 248°
2026-04-20 16:53 -36.04718 164.72223 40024 ft 481 kts 248°
2026-04-20 16:53 -36.07056 164.64456 40054 ft 483 kts 248°
2026-04-20 16:54 -36.09393 164.56661 40059 ft 484 kts 248°
2026-04-20 16:54 -36.11712 164.48903 40063 ft 485 kts 248°
2026-04-20 16:55 -36.14061 164.41026 40077 ft 484 kts 248°
2026-04-20 16:55 -36.16364 164.33281 40077 ft 484 kts 248°
2026-04-20 16:56 -36.18682 164.25465 40068 ft 483 kts 248°
2026-04-20 16:56 -36.20989 164.17661 40057 ft 482 kts 248°
2026-04-20 16:57 -36.23289 164.09860 40062 ft 482 kts 248°
2026-04-20 16:57 -36.25577 164.02081 40044 ft 481 kts 248°
2026-04-20 16:58 -36.27863 163.94285 40042 ft 481 kts 248°
2026-04-20 16:58 -36.30135 163.86516 40038 ft 481 kts 248°
2026-04-20 16:59 -36.32407 163.78725 40041 ft 480 kts 248°
2026-04-20 16:59 -36.34674 163.70928 40042 ft 481 kts 248°
2026-04-20 17:00 -36.38070 163.59211 40051 ft 481 kts 248°
2026-04-20 17:01 -36.40329 163.51387 40059 ft 482 kts 248°
2026-04-20 17:01 -36.42586 163.43547 40046 ft 483 kts 248°
2026-04-20 17:02 -36.44827 163.35741 40055 ft 483 kts 248°
2026-04-20 17:02 -36.47080 163.27872 40064 ft 483 kts 248°
2026-04-20 17:03 -36.49329 163.19994 40060 ft 484 kts 248°
2026-04-20 17:03 -36.51573 163.12111 40059 ft 484 kts 248°
2026-04-20 17:04 -36.53811 163.04224 40077 ft 484 kts 248°
2026-04-20 17:04 -36.56038 162.96318 40063 ft 484 kts 248°
2026-04-20 17:05 -36.58187 162.88400 40064 ft 484 kts 248°
2026-04-20 17:05 -36.60317 162.80531 40070 ft 484 kts 248°
2026-04-20 17:06 -36.62467 162.72598 40076 ft 484 kts 248°
2026-04-20 17:06 -36.64614 162.64661 40062 ft 483 kts 248°
2026-04-20 17:07 -36.66754 162.56727 40072 ft 483 kts 248°
2026-04-20 17:07 -36.68886 162.48793 40059 ft 483 kts 248°
2026-04-20 17:08 -36.71008 162.40877 40057 ft 483 kts 248°
2026-04-20 17:08 -36.73129 162.32939 40059 ft 483 kts 248°
2026-04-20 17:09 -36.75245 162.24995 40070 ft 483 kts 248°
2026-04-20 17:09 -36.77357 162.17046 40075 ft 483 kts 248°
2026-04-20 17:10 -36.79000 162.08893 40077 ft 487 kts 257°
2026-04-20 17:10 -36.80187 162.00565 40077 ft 487 kts 256°
2026-04-20 17:11 -36.81409 161.92245 40081 ft 488 kts 256°
2026-04-20 17:11 -36.82628 161.83908 40083 ft 489 kts 256°
2026-04-20 17:12 -36.83637 161.76963 40087 ft 489 kts 256°
2026-04-20 17:12 -36.84840 161.68608 40088 ft 489 kts 256°
2026-04-20 17:13 -36.86038 161.60242 40086 ft 489 kts 256°
2026-04-20 17:13 -36.87228 161.51874 40085 ft 489 kts 256°
2026-04-20 17:14 -36.88408 161.43533 40082 ft 489 kts 256°
2026-04-20 17:14 -36.89587 161.35157 40086 ft 489 kts 256°
2026-04-20 17:15 -36.90761 161.26776 40090 ft 490 kts 256°
2026-04-20 17:15 -36.91929 161.18391 40092 ft 490 kts 255°
2026-04-20 17:16 -36.93091 161.10007 40089 ft 490 kts 256°
2026-04-20 17:16 -36.94249 161.01602 40089 ft 491 kts 255°
2026-04-20 17:17 -36.95401 160.93197 40096 ft 491 kts 255°
2026-04-20 17:17 -36.96548 160.84777 40091 ft 491 kts 255°
2026-04-20 17:18 -36.97684 160.76405 40093 ft 492 kts 255°
2026-04-20 17:18 -36.98828 160.67914 40096 ft 492 kts 255°
2026-04-20 17:19 -36.99952 160.59528 40098 ft 492 kts 255°
2026-04-20 17:19 -37.01078 160.51087 40094 ft 492 kts 255°
2026-04-20 17:20 -37.02195 160.42656 40094 ft 492 kts 255°
2026-04-20 17:20 -37.03306 160.34228 40094 ft 492 kts 255°
2026-04-20 17:21 -37.04414 160.25778 40098 ft 492 kts 255°
2026-04-20 17:21 -37.05516 160.17321 40098 ft 492 kts 255°
2026-04-20 17:22 -37.06613 160.08859 40100 ft 493 kts 256°
2026-04-20 17:22 -37.07704 160.00389 40102 ft 493 kts 255°
2026-04-20 17:23 -37.08789 159.91916 40109 ft 493 kts 255°
2026-04-20 17:23 -37.09869 159.83436 40110 ft 493 kts 255°
2026-04-20 17:24 -37.10943 159.74951 40110 ft 493 kts 255°
2026-04-20 17:24 -37.12010 159.66467 40108 ft 493 kts 255°
2026-04-20 17:25 -37.13071 159.57986 40106 ft 493 kts 255°
2026-04-20 17:25 -37.14122 159.49537 40103 ft 492 kts 255°
2026-04-20 17:26 -37.15169 159.41060 40106 ft 492 kts 255°
2026-04-20 17:26 -37.16209 159.32598 40110 ft 491 kts 255°
2026-04-20 17:27 -37.17241 159.24145 40107 ft 491 kts 255°
2026-04-20 17:27 -37.18268 159.15687 40105 ft 490 kts 255°
2026-04-20 17:28 -37.19287 159.07241 40108 ft 490 kts 255°
2026-04-20 17:28 -37.20299 158.98798 40140 ft 489 kts 255°
2026-04-20 17:29 -37.21302 158.90375 40179 ft 488 kts 255°
2026-04-20 17:29 -37.22301 158.81946 40186 ft 489 kts 255°
2026-04-20 17:30 -37.23295 158.73498 40196 ft 490 kts 255°
2026-04-20 17:30 -37.24284 158.65037 40199 ft 490 kts 255°
2026-04-20 17:31 -37.25267 158.56582 40203 ft 490 kts 255°
2026-04-20 17:31 -37.26244 158.48111 40202 ft 490 kts 255°
2026-04-20 17:32 -37.27210 158.39689 40214 ft 489 kts 255°
2026-04-20 17:32 -37.28174 158.31228 40213 ft 489 kts 255°
2026-04-20 17:33 -37.29130 158.22783 40209 ft 488 kts 255°
2026-04-20 17:33 -37.30073 158.14401 40216 ft 488 kts 255°
2026-04-20 17:34 -37.31016 158.05967 40214 ft 488 kts 255°
2026-04-20 17:34 -37.31952 157.97534 40214 ft 487 kts 255°
2026-04-20 17:35 -37.32881 157.89104 40229 ft 487 kts 255°
2026-04-20 17:35 -37.33803 157.80686 40226 ft 486 kts 255°
2026-04-20 17:36 -37.34719 157.72272 40223 ft 486 kts 255°
2026-04-20 17:36 -37.35629 157.63855 40220 ft 486 kts 255°
2026-04-20 17:37 -37.36531 157.55448 40218 ft 486 kts 255°
2026-04-20 17:37 -37.37428 157.47035 40225 ft 485 kts 255°
2026-04-20 17:38 -37.38317 157.38628 40229 ft 485 kts 255°
2026-04-20 17:38 -37.39201 157.30228 40226 ft 485 kts 255°
2026-04-20 17:39 -37.40076 157.21842 40227 ft 485 kts 255°
2026-04-20 17:39 -37.40949 157.13424 40226 ft 485 kts 255°
2026-04-20 17:40 -37.41813 157.05030 40228 ft 485 kts 255°
2026-04-20 17:40 -37.42674 156.96608 40228 ft 485 kts 255°
2026-04-20 17:41 -37.43528 156.88193 40244 ft 485 kts 255°
2026-04-20 17:41 -37.44376 156.79772 40236 ft 485 kts 255°
2026-04-20 17:42 -37.45219 156.71346 40239 ft 485 kts 255°
2026-04-20 17:42 -37.46054 156.62935 40249 ft 485 kts 255°
2026-04-20 17:43 -37.46883 156.54515 40250 ft 485 kts 255°
2026-04-20 17:43 -37.47706 156.46099 40249 ft 484 kts 255°
2026-04-20 17:44 -37.48522 156.37690 40245 ft 484 kts 255°
2026-04-20 17:44 -37.49333 156.29276 40249 ft 484 kts 255°
2026-04-20 17:45 -37.50138 156.20864 40251 ft 484 kts 255°
2026-04-20 17:45 -37.50932 156.12495 40244 ft 484 kts 256°
2026-04-20 17:46 -37.51724 156.04087 40254 ft 483 kts 256°
2026-04-20 17:46 -37.52509 155.95682 40264 ft 483 kts 256°
2026-04-20 17:47 -37.53287 155.87288 40263 ft 482 kts 256°
2026-04-20 17:47 -37.54057 155.78928 40254 ft 482 kts 256°
2026-04-20 17:48 -37.54826 155.70535 40260 ft 482 kts 256°
2026-04-20 17:48 -37.55592 155.62140 40254 ft 482 kts 256°
2026-04-20 17:49 -37.56351 155.53746 40264 ft 482 kts 256°
2026-04-20 17:49 -37.56759 155.45258 40260 ft 489 kts 262°
2026-04-20 17:50 -37.56851 155.36752 40272 ft 488 kts 261°
2026-04-20 17:50 -37.56996 155.28209 40267 ft 488 kts 261°
2026-04-20 17:51 -37.57130 155.19659 40264 ft 488 kts 261°
2026-04-20 17:51 -37.57249 155.11116 40263 ft 488 kts 261°
2026-04-20 17:52 -37.57359 155.02579 40279 ft 487 kts 261°
2026-04-20 17:52 -37.57463 154.94043 40276 ft 487 kts 261°
2026-04-20 17:53 -37.57561 154.85518 40276 ft 486 kts 262°
2026-04-20 17:53 -37.57652 154.76995 40272 ft 486 kts 262°
2026-04-20 17:54 -37.57738 154.68471 40273 ft 486 kts 262°
2026-04-20 17:54 -37.57817 154.59965 40273 ft 486 kts 262°
2026-04-20 17:55 -37.57890 154.51460 40279 ft 486 kts 262°
2026-04-20 17:55 -37.57957 154.42930 40284 ft 487 kts 262°
2026-04-20 17:56 -37.58017 154.34412 40285 ft 487 kts 262°
2026-04-20 17:56 -37.58072 154.25880 40288 ft 487 kts 262°
2026-04-20 17:57 -37.58121 154.17338 40288 ft 487 kts 262°
2026-04-20 17:57 -37.58156 154.10246 40289 ft 487 kts 262°
2026-04-20 17:58 -37.58194 154.01709 40286 ft 487 kts 262°
2026-04-20 17:58 -37.58225 153.93176 40297 ft 486 kts 262°
2026-04-20 17:59 -37.58250 153.84654 40298 ft 486 kts 262°
2026-04-20 17:59 -37.58269 153.76140 40296 ft 486 kts 262°
2026-04-20 18:00 -37.58282 153.67627 40293 ft 485 kts 262°
2026-04-20 18:00 -37.58288 153.59181 40297 ft 485 kts 262°
2026-04-20 18:01 -37.58289 153.50681 40295 ft 485 kts 262°
2026-04-20 18:01 -37.58283 153.42186 40299 ft 484 kts 262°
2026-04-20 18:02 -37.58272 153.33719 40296 ft 484 kts 263°
2026-04-20 18:02 -37.58254 153.25257 40306 ft 483 kts 263°
2026-04-20 18:03 -37.58231 153.16790 40315 ft 483 kts 263°
2026-04-20 18:03 -37.58201 153.08353 40313 ft 482 kts 263°
2026-04-20 18:04 -37.58165 152.99909 40327 ft 481 kts 263°
2026-04-20 18:04 -37.58124 152.91477 40337 ft 481 kts 263°
2026-04-20 18:05 -37.58051 152.78841 40335 ft 480 kts 263°
2026-04-20 18:05 -37.57994 152.70435 40326 ft 480 kts 263°
2026-04-20 18:06 -37.57932 152.62028 40342 ft 479 kts 263°
2026-04-20 18:06 -37.57864 152.53655 40342 ft 479 kts 263°
2026-04-20 18:07 -37.57790 152.45269 40330 ft 478 kts 263°
2026-04-20 18:07 -37.57710 152.36893 40336 ft 478 kts 264°
2026-04-20 18:08 -37.57624 152.28528 40342 ft 477 kts 264°
2026-04-20 18:08 -37.57533 152.20172 40331 ft 477 kts 264°
2026-04-20 18:09 -37.57436 152.11828 40329 ft 476 kts 264°
2026-04-20 18:09 -37.57332 152.03489 40372 ft 475 kts 264°
2026-04-20 18:10 -37.57224 151.95204 40385 ft 474 kts 264°
2026-04-20 18:10 -37.57110 151.86911 40381 ft 474 kts 264°
2026-04-20 18:11 -37.56991 151.78647 40373 ft 474 kts 264°
2026-04-20 18:11 -37.56865 151.70353 40380 ft 473 kts 265°
2026-04-20 18:12 -37.56734 151.62085 40382 ft 473 kts 265°
2026-04-20 18:12 -37.56597 151.53810 40377 ft 472 kts 265°
2026-04-20 18:13 -37.56455 151.45544 40379 ft 472 kts 265°
2026-04-20 18:13 -37.56306 151.37285 40375 ft 471 kts 265°
2026-04-20 18:14 -37.56154 151.29084 40373 ft 471 kts 265°
2026-04-20 18:14 -37.55994 151.20831 40370 ft 471 kts 265°
2026-04-20 18:15 -37.55829 151.12590 40371 ft 471 kts 265°
2026-04-20 18:15 -37.55658 151.04345 40371 ft 470 kts 265°
2026-04-20 18:16 -37.55482 150.96107 40372 ft 470 kts 265°
2026-04-20 18:16 -37.55300 150.87881 40375 ft 470 kts 266°
2026-04-20 18:17 -37.55112 150.79652 40379 ft 469 kts 266°
2026-04-20 18:17 -37.54920 150.71430 40375 ft 469 kts 266°
2026-04-20 18:18 -37.54725 150.63213 40377 ft 469 kts 266°
2026-04-20 18:18 -37.54528 150.55070 40376 ft 469 kts 266°
2026-04-20 18:19 -37.54610 150.46895 40372 ft 465 kts 262°
2026-04-20 18:19 -37.54944 150.38770 40382 ft 464 kts 262°
2026-04-20 18:20 -37.55221 150.30638 40384 ft 464 kts 262°
2026-04-20 18:20 -37.55462 150.22511 40383 ft 464 kts 263°
2026-04-20 18:21 -37.55692 150.14377 40379 ft 464 kts 263°
2026-04-20 18:21 -37.55915 150.06249 40382 ft 464 kts 263°
2026-04-20 18:22 -37.56132 149.98179 40381 ft 464 kts 263°
2026-04-20 18:22 -37.56345 149.90055 40384 ft 464 kts 263°
2026-04-20 18:23 -37.56552 149.81929 40386 ft 464 kts 263°
2026-04-20 18:23 -37.56753 149.73826 40381 ft 464 kts 263°
2026-04-20 18:24 -37.56950 149.65702 40382 ft 464 kts 263°
2026-04-20 18:24 -37.57140 149.57579 40392 ft 463 kts 263°
2026-04-20 18:25 -37.57324 149.49461 40389 ft 463 kts 263°
2026-04-20 18:25 -37.57504 149.41336 40382 ft 463 kts 263°
2026-04-20 18:26 -37.57678 149.33216 40381 ft 464 kts 263°
2026-04-20 18:26 -37.57844 149.25148 40389 ft 463 kts 263°
2026-04-20 18:27 -37.58007 149.17025 40373 ft 463 kts 263°
2026-04-20 18:27 -37.58164 149.08904 40368 ft 463 kts 264°
2026-04-20 18:28 -37.58315 149.00788 40370 ft 463 kts 264°
2026-04-20 18:28 -37.58462 148.92669 40368 ft 463 kts 264°
2026-04-20 18:29 -37.58602 148.84563 40369 ft 463 kts 264°
2026-04-20 18:29 -37.58736 148.76449 40373 ft 463 kts 264°
2026-04-20 18:30 -37.58865 148.68360 40375 ft 463 kts 264°
2026-04-20 18:30 -37.58990 148.60258 40370 ft 462 kts 264°
2026-04-20 18:31 -37.59106 148.52152 40369 ft 462 kts 264°
2026-04-20 18:31 -37.59218 148.44051 40364 ft 462 kts 264°
2026-04-20 18:32 -37.59325 148.35952 40362 ft 462 kts 265°
2026-04-20 18:32 -37.59426 148.27859 40363 ft 461 kts 265°
2026-04-20 18:33 -37.59523 148.19778 40359 ft 461 kts 265°
2026-04-20 18:33 -37.59612 148.11702 40356 ft 461 kts 265°
2026-04-20 18:34 -37.59695 148.03653 40355 ft 461 kts 265°
2026-04-20 18:34 -37.59774 147.95571 40351 ft 460 kts 265°
2026-04-20 18:35 -37.59847 147.87514 40350 ft 460 kts 265°
2026-04-20 18:35 -37.59915 147.79425 40348 ft 460 kts 265°
2026-04-20 18:36 -37.59978 147.71356 40346 ft 460 kts 265°
2026-04-20 18:36 -37.60034 147.63289 40347 ft 460 kts 265°
2026-04-20 18:37 -37.60089 147.55230 40342 ft 460 kts 265°
2026-04-20 18:37 -37.60133 147.47173 40341 ft 460 kts 265°
2026-04-20 18:38 -37.60171 147.39134 40295 ft 458 kts 265°
2026-04-20 18:38 -37.60188 147.35127 40059 ft 453 kts 265°
2026-04-20 18:38 -37.60203 147.31172 39811 ft 450 kts 265°
2026-04-20 18:39 -37.60221 147.27215 39566 ft 457 kts 265°
2026-04-20 18:39 -37.60233 147.23219 39315 ft 454 kts 265°
2026-04-20 18:39 -37.60245 147.19261 39064 ft 449 kts 265°
2026-04-20 18:39 -37.60256 147.15326 38817 ft 449 kts 265°
2026-04-20 18:40 -37.60267 147.11392 38568 ft 449 kts 265°
2026-04-20 18:40 -37.60276 147.07450 38320 ft 449 kts 265°
2026-04-20 18:40 -37.60285 147.03511 38072 ft 450 kts 265°
2026-04-20 18:40 -37.60290 146.99562 37823 ft 451 kts 265°
2026-04-20 18:41 -37.60296 146.95614 37560 ft 450 kts 265°
2026-04-20 18:41 -37.60299 146.91677 36976 ft 449 kts 265°
2026-04-20 18:41 -37.60300 146.87734 36033 ft 452 kts 265°
2026-04-20 18:41 -37.60302 146.83729 34672 ft 462 kts 265°
2026-04-20 18:42 -37.60304 146.79643 33541 ft 467 kts 265°
2026-04-20 18:42 -37.60300 146.75551 32705 ft 465 kts 265°
2026-04-20 18:42 -37.60293 146.71515 32163 ft 456 kts 265°
2026-04-20 18:42 -37.60285 146.67573 31868 ft 443 kts 265°
2026-04-20 18:43 -37.60279 146.65014 31632 ft 437 kts 265°
2026-04-20 18:43 -37.60273 146.61201 30989 ft 434 kts 265°
2026-04-20 18:43 -37.60267 146.57411 30359 ft 430 kts 265°
2026-04-20 18:43 -37.60259 146.52451 29529 ft 424 kts 265°
2026-04-20 18:44 -37.60205 146.48747 28914 ft 422 kts 269°
2026-04-20 18:44 -37.59889 146.45073 28288 ft 422 kts 274°
2026-04-20 18:44 -37.59511 146.42625 27863 ft 421 kts 278°
2026-04-20 18:44 -37.58832 146.39050 27244 ft 417 kts 278°
2026-04-20 18:45 -37.58188 146.35504 26618 ft 413 kts 278°
2026-04-20 18:45 -37.57561 146.31990 25992 ft 409 kts 278°
2026-04-20 18:45 -37.56941 146.28515 25367 ft 405 kts 278°
2026-04-20 18:45 -37.56322 146.25070 24760 ft 402 kts 278°
2026-04-20 18:46 -37.55704 146.21647 24140 ft 399 kts 279°
2026-04-20 18:46 -37.55089 146.18253 23518 ft 395 kts 279°
2026-04-20 18:46 -37.54480 146.14891 22900 ft 392 kts 279°
2026-04-20 18:46 -37.53881 146.11599 22311 ft 389 kts 279°
2026-04-20 18:47 -37.53277 146.08293 21699 ft 385 kts 279°
2026-04-20 18:47 -37.52678 146.05020 21097 ft 381 kts 279°
2026-04-20 18:47 -37.52085 146.01783 20492 ft 378 kts 279°
2026-04-20 18:47 -37.51495 145.98570 19893 ft 375 kts 279°
2026-04-20 18:48 -37.50909 145.95383 19290 ft 372 kts 280°
2026-04-20 18:48 -37.50328 145.92221 18694 ft 369 kts 280°
2026-04-20 18:48 -37.49749 145.89081 18105 ft 366 kts 280°
2026-04-20 18:48 -37.49176 145.85969 17513 ft 364 kts 281°
2026-04-20 18:49 -37.48607 145.82885 16921 ft 360 kts 281°
2026-04-20 18:49 -37.48041 145.79824 16344 ft 357 kts 281°
2026-04-20 18:49 -37.47482 145.76795 15770 ft 354 kts 281°
2026-04-20 18:49 -37.46926 145.73794 15263 ft 349 kts 281°
2026-04-20 18:50 -37.46383 145.70886 15106 ft 334 kts 281°
2026-04-20 18:50 -37.45862 145.68107 14980 ft 319 kts 281°
2026-04-20 18:50 -37.45362 145.65437 14717 ft 310 kts 281°
2026-04-20 18:50 -37.45038 145.62760 14229 ft 309 kts 271°
2026-04-20 18:51 -37.45016 145.60082 13792 ft 306 kts 268°
2026-04-20 18:51 -37.45003 145.57401 13357 ft 305 kts 268°
2026-04-20 18:51 -37.44978 145.54744 12926 ft 302 kts 268°
2026-04-20 18:51 -37.44949 145.52113 12501 ft 299 kts 269°
2026-04-20 18:52 -37.44918 145.49495 11859 ft 298 kts 269°
2026-04-20 18:52 -37.44887 145.46909 11240 ft 295 kts 269°
2026-04-20 18:52 -37.44855 145.44337 10595 ft 293 kts 270°
2026-04-20 18:52 -37.44825 145.41824 10264 ft 281 kts 270°
2026-04-20 18:53 -37.44794 145.39362 10028 ft 283 kts 270°
2026-04-20 18:53 -37.44766 145.36891 9689 ft 282 kts 270°
2026-04-20 18:53 -37.44737 145.34451 9311 ft 277 kts 271°
2026-04-20 18:53 -37.44707 145.32009 8552 ft 281 kts 271°
2026-04-20 18:54 -37.44676 145.29622 8340 ft 264 kts 271°
2026-04-20 18:54 -37.44647 145.27391 8181 ft 247 kts 271°
2026-04-20 18:54 -37.44620 145.25301 8039 ft 231 kts 271°
2026-04-20 18:54 -37.44593 145.23330 7745 ft 223 kts 271°
2026-04-20 18:55 -37.44565 145.21372 7266 ft 225 kts 271°
2026-04-20 18:55 -37.44538 145.19404 6846 ft 223 kts 271°
2026-04-20 18:55 -37.44513 145.17475 6662 ft 219 kts 272°
2026-04-20 18:55 -37.44486 145.15554 6393 ft 220 kts 272°
2026-04-20 18:56 -37.44460 145.13649 6113 ft 216 kts 272°
2026-04-20 18:56 -37.44430 145.11748 5843 ft 218 kts 272°
2026-04-20 18:56 -37.44402 145.09876 5571 ft 216 kts 272°
2026-04-20 18:56 -37.44374 145.07957 5303 ft 216 kts 271°
2026-04-20 18:57 -37.44346 145.06086 5169 ft 214 kts 271°
2026-04-20 18:57 -37.44321 145.04206 5042 ft 215 kts 272°
2026-04-20 18:57 -37.44294 145.02327 5000 ft 214 kts 272°
2026-04-20 18:57 -37.44262 145.00448 5002 ft 215 kts 272°
2026-04-20 18:58 -37.44231 144.98566 4896 ft 215 kts 272°
2026-04-20 18:58 -37.44199 144.96677 4790 ft 215 kts 272°
2026-04-20 18:58 -37.44169 144.94847 4738 ft 208 kts 271°
2026-04-20 18:58 -37.44312 144.93046 4298 ft 211 kts 259°
2026-04-20 18:59 -37.44595 144.91228 3989 ft 211 kts 259°
2026-04-20 18:59 -37.44859 144.89441 3918 ft 205 kts 260°
2026-04-20 18:59 -37.45106 144.87706 3771 ft 195 kts 261°
2026-04-20 18:59 -37.45347 144.86007 3601 ft 199 kts 261°
2026-04-20 19:00 -37.45592 144.84289 3437 ft 200 kts 260°
2026-04-20 19:00 -37.45861 144.82577 3268 ft 199 kts 252°
2026-04-20 19:00 -37.46660 144.81190 3113 ft 200 kts 213°
2026-04-20 19:00 -37.47947 144.80592 2911 ft 198 kts 186°
2026-04-20 19:01 -37.49319 144.80568 2731 ft 197 kts 174°
2026-04-20 19:01 -37.50684 144.80765 2562 ft 198 kts 170°
2026-04-20 19:01 -37.52045 144.81023 2406 ft 198 kts 170°
2026-04-20 19:01 -37.53405 144.81273 2231 ft 198 kts 171°
2026-04-20 19:02 -37.54740 144.81519 2122 ft 186 kts 171°
2026-04-20 19:02 -37.55954 144.81744 2007 ft 169 kts 171°
2026-04-20 19:02 -37.57112 144.81960 1998 ft 167 kts 170°
2026-04-20 19:02 -37.58263 144.82176 1871 ft 168 kts 171°
2026-04-20 19:03 -37.59410 144.82388 1637 ft 164 kts 170°
2026-04-20 19:03 -37.60466 144.82584 1426 ft 146 kts 171°
2026-04-20 19:03 -37.61455 144.82771 1229 ft 142 kts 170°
2026-04-20 19:03 -37.62423 144.82951 1041 ft 140 kts 171°
2026-04-20 19:04 -37.63381 144.83130 850 ft 138 kts 171°
2026-04-20 19:04 -37.64332 144.83307 674 ft 138 kts 171°
2026-04-20 19:04 -37.65267 144.83482 488 ft 136 kts 171°
2026-04-20 19:04 -37.66168 144.83652 413 ft 115 kts 172°
2026-04-20 19:05 -37.66710 144.83750 401 ft 47 kts 172°
2026-04-20 19:05 -37.66999 144.83847 391 ft 41 kts 154°
2026-04-20 19:05 -37.67157 144.83983 385 ft 13 kts 144°
2026-04-20 19:05 -37.67223 144.84048 383 ft 10 kts 118°
2026-04-20 19:06 -37.67224 144.84113 384 ft 10 kts 85°
2026-04-20 19:06 -37.67198 144.84202 386 ft 12 kts 46°
2026-04-20 19:06 -37.67092 144.84242 389 ft 23 kts 358°
2026-04-20 19:06 -37.66982 144.84227 391 ft 10 kts 353°
2026-04-20 19:07 -37.66931 144.84221 393 ft 4 kts
2026-04-20 19:07 -37.66910 144.84230 393 ft 3 kts 36°
2026-04-20 19:07 -37.66904 144.84277 394 ft 5 kts 95°
2026-04-20 19:07 -37.66902 144.84312 392 ft 3 kts 82°
2026-04-20 19:08 -37.66900 144.84330 395 ft 1 kts 82°
2026-04-20 19:08 -37.66899 144.84338 395 ft 0 kts 82°